Wetterdaten: Donnerstag, 14.03.2019
Datum Zeit Temp. Aussen Temp. o. S. +5cm Feuchte Auss Luftdruck Regen Sonnenschein Regendauer Solar Windben Empfang
14.03.2019 00:00 5,4 C 5,0 C 4,4 C 90 % 1007,2 hPa 0,0 l/m 0 min 2 min 0 W/m 9,7 km/h (2 Bft) 97,83 %
14.03.2019 00:02 5,4 C 4,4 C 3,9 C 90 % 1007,2 hPa 0,0 l/m 0 min 2 min 0 W/m 16,1 km/h (3 Bft) 95,24 %
14.03.2019 00:04 5,5 C 3,9 C 3,3 C 91 % 1007,2 hPa 0,0 l/m 0 min 2 min 0 W/m 12,9 km/h (3 Bft) 97,87 %
14.03.2019 00:07 5,5 C 3,9 C 3,3 C 91 % 1007,3 hPa 0,0 l/m 0 min 3 min 0 W/m 16,1 km/h (3 Bft) 95,71 %
14.03.2019 00:08 5,5 C 3,9 C 3,3 C 91 % 1007,3 hPa 0,0 l/m 0 min 1 min 0 W/m 9,7 km/h (2 Bft) 95,83 %
14.03.2019 00:10 5,5 C 3,9 C 3,9 C 91 % 1007,4 hPa 0,2 l/m 0 min 2 min 0 W/m 9,7 km/h (2 Bft) 97,87 %
14.03.2019 00:12 5,5 C 3,9 C 3,9 C 91 % 1007,3 hPa 0,0 l/m 0 min 2 min 0 W/m 16,1 km/h (3 Bft) 97,83 %
14.03.2019 00:14 5,5 C 3,9 C 3,9 C 91 % 1007,3 hPa 0,0 l/m 0 min 2 min 0 W/m 9,7 km/h (2 Bft) 100,00 %
14.03.2019 00:16 5,5 C 3,9 C 3,9 C 91 % 1007,3 hPa 0,0 l/m 0 min 2 min 0 W/m 9,7 km/h (2 Bft) 97,87 %
14.03.2019 00:18 5,5 C 4,4 C 3,9 C 91 % 1007,3 hPa 0,0 l/m 0 min 2 min 0 W/m 12,9 km/h (3 Bft) 100,00 %
14.03.2019 00:20 5,5 C 4,4 C 3,9 C 92 % 1007,5 hPa 0,0 l/m 0 min 2 min 0 W/m 9,7 km/h (2 Bft) 97,87 %
14.03.2019 00:22 5,5 C 4,4 C 3,9 C 92 % 1007,7 hPa 0,2 l/m 0 min 2 min 0 W/m 9,7 km/h (2 Bft) 100,00 %
14.03.2019 00:24 5,5 C 4,4 C 3,9 C 92 % 1007,8 hPa 0,2 l/m 0 min 2 min 0 W/m 12,9 km/h (3 Bft) 97,87 %
14.03.2019 00:26 5,5 C 4,4 C 3,9 C 92 % 1007,8 hPa 0,2 l/m 0 min 2 min 0 W/m 9,7 km/h (2 Bft) 100,00 %
14.03.2019 00:28 5,5 C 4,4 C 3,9 C 92 % 1007,9 hPa 0,0 l/m 0 min 2 min 0 W/m 12,9 km/h (3 Bft) 97,87 %
14.03.2019 00:30 5,5 C 4,4 C 3,9 C 92 % 1008,0 hPa 0,0 l/m 0 min 2 min 0 W/m 16,1 km/h (3 Bft) 97,87 %
14.03.2019 00:32 5,4 C 4,4 C 3,9 C 93 % 1007,9 hPa 0,2 l/m 0 min 2 min 0 W/m 16,1 km/h (3 Bft) 95,74 %
14.03.2019 00:34 5,4 C 4,4 C 3,9 C 93 % 1007,9 hPa 0,2 l/m 0 min 2 min 0 W/m 12,9 km/h (3 Bft) 97,83 %
14.03.2019 00:36 5,4 C 4,4 C 3,9 C 93 % 1007,8 hPa 0,0 l/m 0 min 2 min 0 W/m 12,9 km/h (3 Bft) 97,87 %
14.03.2019 00:38 5,4 C 4,4 C 3,9 C 93 % 1007,8 hPa 0,0 l/m 0 min 2 min 0 W/m 6,4 km/h (2 Bft) 97,87 %
14.03.2019 00:40 5,4 C 4,4 C 3,9 C 93 % 1007,8 hPa 0,0 l/m 0 min 2 min 0 W/m 6,4 km/h (2 Bft) 97,87 %
14.03.2019 00:42 5,4 C 4,4 C 3,9 C 93 % 1007,6 hPa 0,0 l/m 0 min 2 min 0 W/m 3,2 km/h (1 Bft) 97,87 %
14.03.2019 00:44 5,4 C 4,4 C 3,9 C 93 % 1007,6 hPa 0,0 l/m 0 min 2 min 0 W/m 0,0 km/h (0 Bft) 97,87 %
14.03.2019 00:46 5,4 C 4,4 C 3,9 C 93 % 1007,6 hPa 0,0 l/m 0 min 2 min 0 W/m 12,9 km/h (3 Bft) 97,83 %
14.03.2019 00:48 5,4 C 4,4 C 3,9 C 93 % 1007,7 hPa 0,0 l/m 0 min 2 min 0 W/m 12,9 km/h (3 Bft) 97,87 %
14.03.2019 00:50 5,4 C 4,4 C 3,9 C 93 % 1007,7 hPa 0,0 l/m 0 min 2 min 0 W/m 6,4 km/h (2 Bft) 97,87 %
14.03.2019 00:52 5,4 C 4,4 C 3,9 C 93 % 1007,7 hPa 0,0 l/m 0 min 2 min 0 W/m 12,9 km/h (3 Bft) 97,87 %
14.03.2019 00:54 5,4 C 4,4 C 3,9 C 94 % 1007,7 hPa 0,0 l/m 0 min 2 min 0 W/m 6,4 km/h (2 Bft) 97,87 %
14.03.2019 00:56 5,4 C 4,4 C 3,9 C 94 % 1007,8 hPa 0,0 l/m 0 min 2 min 0 W/m 12,9 km/h (3 Bft) 97,87 %
14.03.2019 00:58 5,4 C 4,4 C 3,9 C 94 % 1007,9 hPa 0,0 l/m 0 min 2 min 0 W/m 19,3 km/h (3 Bft) 95,65 %
14.03.2019 01:00 5,4 C 4,4 C 3,9 C 94 % 1007,8 hPa 0,0 l/m 0 min 2 min 0 W/m 16,1 km/h (3 Bft) 97,87 %
14.03.2019 01:02 5,4 C 4,4 C 3,9 C 94 % 1007,9 hPa 0,0 l/m 0 min 0 min 0 W/m 9,7 km/h (2 Bft) 97,87 %
14.03.2019 01:04 5,4 C 4,4 C 3,9 C 94 % 1007,8 hPa 0,0 l/m 0 min 2 min 0 W/m 22,5 km/h (4 Bft) 97,87 %
14.03.2019 01:06 5,5 C 4,4 C 3,9 C 94 % 1007,9 hPa 0,0 l/m 0 min 2 min 0 W/m 9,7 km/h (2 Bft) 97,87 %
14.03.2019 01:08 5,5 C 4,4 C 3,9 C 94 % 1007,8 hPa 0,0 l/m 0 min 2 min 0 W/m 16,1 km/h (3 Bft) 95,74 %
14.03.2019 01:10 5,5 C 5,0 C 3,9 C 94 % 1007,8 hPa 0,0 l/m 0 min 2 min 0 W/m 9,7 km/h (2 Bft) 97,83 %
14.03.2019 01:12 5,5 C 5,0 C 3,9 C 94 % 1008,0 hPa 0,0 l/m 0 min 2 min 0 W/m 22,5 km/h (4 Bft) 95,74 %
14.03.2019 01:14 5,5 C 4,4 C 3,9 C 94 % 1007,8 hPa 0,0 l/m 0 min 0 min 0 W/m 6,4 km/h (2 Bft) 96,00 %
14.03.2019 01:16 5,5 C 4,4 C 3,9 C 94 % 1007,8 hPa 0,0 l/m 0 min 0 min 0 W/m 3,2 km/h (1 Bft) 97,83 %
14.03.2019 01:18 5,5 C 4,4 C 3,9 C 94 % 1007,8 hPa 0,0 l/m 0 min 0 min 0 W/m 3,2 km/h (1 Bft) 97,87 %
14.03.2019 01:20 5,5 C 4,4 C 3,9 C 94 % 1007,8 hPa 0,0 l/m 0 min 0 min 0 W/m 12,9 km/h (3 Bft) 97,87 %
14.03.2019 01:22 5,5 C 4,4 C 3,9 C 94 % 1007,8 hPa 0,0 l/m 0 min 0 min 0 W/m 3,2 km/h (1 Bft) 97,87 %
14.03.2019 01:24 5,5 C 4,4 C 3,9 C 94 % 1007,8 hPa 0,0 l/m 0 min 2 min 0 W/m 9,7 km/h (2 Bft) 97,87 %
14.03.2019 01:26 5,6 C 4,4 C 3,9 C 94 % 1007,7 hPa 0,0 l/m 0 min 0 min 0 W/m 3,2 km/h (1 Bft) 100,00 %
14.03.2019 01:28 5,5 C 4,4 C 3,9 C 94 % 1007,7 hPa 0,0 l/m 0 min 0 min 0 W/m 9,7 km/h (2 Bft) 100,00 %
14.03.2019 01:30 5,6 C 4,4 C 3,9 C 94 % 1007,7 hPa 0,0 l/m 0 min 2 min 0 W/m 29,0 km/h (5 Bft) 97,83 %
14.03.2019 01:32 5,6 C 5,0 C 3,9 C 94 % 1007,7 hPa 0,0 l/m 0 min 2 min 0 W/m 16,1 km/h (3 Bft) 95,74 %
14.03.2019 01:34 5,6 C 5,0 C 3,9 C 94 % 1007,8 hPa 0,0 l/m 0 min 0 min 0 W/m 16,1 km/h (3 Bft) 97,87 %
14.03.2019 01:36 5,6 C 5,0 C 3,9 C 94 % 1007,8 hPa 0,0 l/m 0 min 0 min 0 W/m 12,9 km/h (3 Bft) 97,87 %
14.03.2019 01:38 5,6 C 5,0 C 3,9 C 94 % 1007,7 hPa 0,0 l/m 0 min 2 min 0 W/m 22,5 km/h (4 Bft) 97,87 %
14.03.2019 01:40 5,6 C 5,0 C 4,4 C 94 % 1007,7 hPa 0,0 l/m 0 min 0 min 0 W/m 12,9 km/h (3 Bft) 97,83 %
14.03.2019 01:42 5,6 C 5,0 C 4,4 C 94 % 1007,7 hPa 0,0 l/m 0 min 0 min 0 W/m 9,7 km/h (2 Bft) 97,87 %
14.03.2019 01:44 5,6 C 5,0 C 4,4 C 94 % 1007,7 hPa 0,0 l/m 0 min 0 min 0 W/m 12,9 km/h (3 Bft) 97,87 %
14.03.2019 01:46 5,6 C 5,0 C 4,4 C 94 % 1007,6 hPa 0,0 l/m 0 min 0 min 0 W/m 12,9 km/h (3 Bft) 97,87 %
14.03.2019 01:48 5,7 C 5,0 C 3,9 C 94 % 1007,6 hPa 0,0 l/m 0 min 0 min 0 W/m 19,3 km/h (3 Bft) 97,87 %
14.03.2019 01:50 5,7 C 5,0 C 3,9 C 94 % 1007,7 hPa 0,0 l/m 0 min 0 min 0 W/m 22,5 km/h (4 Bft) 97,87 %
14.03.2019 01:52 5,7 C 5,0 C 3,9 C 93 % 1007,7 hPa 0,0 l/m 0 min 0 min 0 W/m 12,9 km/h (3 Bft) 97,83 %
14.03.2019 01:54 5,7 C 5,0 C 3,9 C 93 % 1007,6 hPa 0,0 l/m 0 min 0 min 0 W/m 16,1 km/h (3 Bft) 97,87 %
14.03.2019 01:56 5,7 C 4,4 C 3,9 C 93 % 1007,7 hPa 0,0 l/m 0 min 0 min 0 W/m 16,1 km/h (3 Bft) 97,87 %
14.03.2019 01:58 5,7 C 5,0 C 3,9 C 93 % 1007,7 hPa 0,0 l/m 0 min 0 min 0 W/m 16,1 km/h (3 Bft) 97,87 %
14.03.2019 02:00 5,6 C 5,0 C 3,9 C 93 % 1007,7 hPa 0,0 l/m 0 min 0 min 0 W/m 9,7 km/h (2 Bft) 97,87 %
14.03.2019 02:02 5,7 C 5,0 C 4,4 C 93 % 1007,9 hPa 0,0 l/m 0 min 0 min 0 W/m 12,9 km/h (3 Bft) 95,74 %
14.03.2019 02:04 5,7 C 5,0 C 4,4 C 93 % 1007,8 hPa 0,0 l/m 0 min 0 min 0 W/m 9,7 km/h (2 Bft) 100,00 %
14.03.2019 02:06 5,7 C 5,0 C 4,4 C 93 % 1007,8 hPa 0,0 l/m 0 min 0 min 0 W/m 19,3 km/h (3 Bft) 95,74 %
14.03.2019 02:08 5,7 C 5,0 C 4,4 C 93 % 1007,9 hPa 0,0 l/m 0 min 0 min 0 W/m 9,7 km/h (2 Bft) 91,49 %
14.03.2019 02:10 5,7 C 5,0 C 4,4 C 93 % 1007,9 hPa 0,0 l/m 0 min 0 min 0 W/m 16,1 km/h (3 Bft) 95,74 %
14.03.2019 02:12 5,7 C 5,0 C 4,4 C 93 % 1008,0 hPa 0,0 l/m 0 min 0 min 0 W/m 9,7 km/h (2 Bft) 95,74 %
14.03.2019 02:14 5,7 C 5,0 C 3,9 C 93 % 1008,0 hPa 0,0 l/m 0 min 0 min 0 W/m 16,1 km/h (3 Bft) 95,74 %
14.03.2019 02:16 5,7 C 5,0 C 4,4 C 93 % 1008,0 hPa 0,0 l/m 0 min 0 min 0 W/m 16,1 km/h (3 Bft) 93,48 %
14.03.2019 02:18 5,7 C 5,0 C 4,4 C 93 % 1007,9 hPa 0,0 l/m 0 min 0 min 0 W/m 16,1 km/h (3 Bft) 95,74 %
14.03.2019 02:20 5,7 C 5,0 C 4,4 C 93 % 1007,9 hPa 0,0 l/m 0 min 0 min 0 W/m 12,9 km/h (3 Bft) 93,62 %
14.03.2019 02:22 5,7 C 5,0 C 4,4 C 93 % 1008,0 hPa 0,0 l/m 0 min 0 min 0 W/m 6,4 km/h (2 Bft) 93,62 %
14.03.2019 02:24 5,7 C 5,0 C 4,4 C 93 % 1007,9 hPa 0,0 l/m 0 min 0 min 0 W/m 12,9 km/h (3 Bft) 95,74 %
14.03.2019 02:26 5,7 C 5,0 C 4,4 C 93 % 1007,9 hPa 0,0 l/m 0 min 0 min 0 W/m 22,5 km/h (4 Bft) 95,74 %
14.03.2019 02:28 5,7 C 5,0 C 4,4 C 93 % 1007,9 hPa 0,0 l/m 0 min 0 min 0 W/m 12,9 km/h (3 Bft) 95,65 %
14.03.2019 02:30 5,7 C 5,0 C 4,4 C 93 % 1007,9 hPa 0,0 l/m 0 min 0 min 0 W/m 19,3 km/h (3 Bft) 97,87 %
14.03.2019 02:32 5,7 C 5,0 C 4,4 C 92 % 1007,8 hPa 0,0 l/m 0 min 0 min 0 W/m 22,5 km/h (4 Bft) 93,62 %
14.03.2019 02:34 5,8 C 5,0 C 4,4 C 92 % 1007,9 hPa 0,0 l/m 0 min 0 min 0 W/m 16,1 km/h (3 Bft) 97,87 %
14.03.2019 02:36 5,8 C 5,0 C 4,4 C 92 % 1007,7 hPa 0,0 l/m 0 min 0 min 0 W/m 19,3 km/h (3 Bft) 97,87 %
14.03.2019 02:38 5,8 C 5,0 C 4,4 C 92 % 1007,7 hPa 0,0 l/m 0 min 0 min 0 W/m 12,9 km/h (3 Bft) 97,83 %
14.03.2019 02:40 5,8 C 5,0 C 4,4 C 92 % 1007,7 hPa 0,0 l/m 0 min 0 min 0 W/m 9,7 km/h (2 Bft) 95,74 %
14.03.2019 02:42 5,8 C 5,6 C 4,4 C 92 % 1007,6 hPa 0,0 l/m 0 min 0 min 0 W/m 12,9 km/h (3 Bft) 97,87 %
14.03.2019 02:44 5,8 C 5,6 C 4,4 C 92 % 1007,6 hPa 0,0 l/m 0 min 0 min 0 W/m 12,9 km/h (3 Bft) 97,87 %
14.03.2019 02:46 5,8 C 5,6 C 4,4 C 92 % 1007,7 hPa 0,0 l/m 0 min 0 min 0 W/m 12,9 km/h (3 Bft) 97,87 %
14.03.2019 02:48 5,8 C 5,6 C 4,4 C 92 % 1007,7 hPa 0,0 l/m 0 min 0 min 0 W/m 12,9 km/h (3 Bft) 97,87 %
14.03.2019 02:50 5,8 C 5,6 C 4,4 C 92 % 1007,6 hPa 0,0 l/m 0 min 0 min 0 W/m 12,9 km/h (3 Bft) 97,83 %
14.03.2019 02:52 5,8 C 5,6 C 4,4 C 92 % 1007,7 hPa 0,0 l/m 0 min 0 min 0 W/m 12,9 km/h (3 Bft) 97,87 %
14.03.2019 02:54 5,8 C 5,6 C 4,4 C 92 % 1007,6 hPa 0,0 l/m 0 min 0 min 0 W/m 16,1 km/h (3 Bft) 100,00 %
14.03.2019 02:56 5,8 C 5,6 C 4,4 C 92 % 1007,6 hPa 0,0 l/m 0 min 0 min 0 W/m 9,7 km/h (2 Bft) 100,00 %
14.03.2019 02:58 5,8 C 5,6 C 4,4 C 92 % 1007,5 hPa 0,0 l/m 0 min 0 min 0 W/m 12,9 km/h (3 Bft) 97,87 %
14.03.2019 03:00 5,9 C 5,6 C 4,4 C 92 % 1007,5 hPa 0,0 l/m 0 min 0 min 0 W/m 19,3 km/h (3 Bft) 100,00 %
14.03.2019 03:02 5,9 C 5,6 C 4,4 C 92 % 1007,5 hPa 0,0 l/m 0 min 0 min 0 W/m 16,1 km/h (3 Bft) 97,83 %
14.03.2019 03:04 5,9 C 5,6 C 4,4 C 92 % 1007,5 hPa 0,0 l/m 0 min 0 min 0 W/m 12,9 km/h (3 Bft) 100,00 %
14.03.2019 03:06 5,9 C 5,6 C 5,0 C 92 % 1007,4 hPa 0,0 l/m 0 min 0 min 0 W/m 22,5 km/h (4 Bft) 97,87 %
14.03.2019 03:08 5,9 C 5,6 C 4,4 C 91 % 1007,4 hPa 0,0 l/m 0 min 0 min 0 W/m 19,3 km/h (3 Bft) 100,00 %
14.03.2019 03:10 5,9 C 5,6 C 5,0 C 91 % 1007,4 hPa 0,0 l/m 0 min 0 min 0 W/m 19,3 km/h (3 Bft) 100,00 %
14.03.2019 03:12 5,9 C 5,6 C 5,0 C 91 % 1007,4 hPa 0,0 l/m 0 min 0 min 0 W/m 9,7 km/h (2 Bft) 100,00 %
14.03.2019 03:14 5,9 C 5,6 C 5,0 C 91 % 1007,4 hPa 0,0 l/m 0 min 0 min 0 W/m 16,1 km/h (3 Bft) 100,00 %
14.03.2019 03:16 5,9 C 5,6 C 5,0 C 91 % 1007,4 hPa 0,0 l/m 0 min 0 min 0 W/m 9,7 km/h (2 Bft) 100,00 %
14.03.2019 03:18 5,9 C 5,6 C 4,4 C 91 % 1007,4 hPa 0,0 l/m 0 min 0 min 0 W/m 12,9 km/h (3 Bft) 100,00 %
14.03.2019 03:20 5,9 C 5,6 C 5,0 C 91 % 1007,4 hPa 0,0 l/m 0 min 0 min 0 W/m 16,1 km/h (3 Bft) 100,00 %
14.03.2019 03:22 5,9 C 5,6 C 4,4 C 91 % 1007,3 hPa 0,0 l/m 0 min 0 min 0 W/m 12,9 km/h (3 Bft) 100,00 %
14.03.2019 03:24 5,9 C 5,6 C 4,4 C 91 % 1007,0 hPa 0,0 l/m 0 min 0 min 0 W/m 12,9 km/h (3 Bft) 100,00 %
14.03.2019 03:26 6,0 C 5,6 C 5,0 C 91 % 1006,9 hPa 0,0 l/m 0 min 0 min 0 W/m 19,3 km/h (3 Bft) 100,00 %
14.03.2019 03:28 6,0 C 5,6 C 5,0 C 91 % 1006,9 hPa 0,0 l/m 0 min 0 min 0 W/m 12,9 km/h (3 Bft) 100,00 %
14.03.2019 03:30 6,0 C 5,6 C 5,0 C 91 % 1006,8 hPa 0,0 l/m 0 min 0 min 0 W/m 19,3 km/h (3 Bft) 100,00 %
14.03.2019 03:32 6,0 C 5,6 C 5,0 C 91 % 1006,8 hPa 0,0 l/m 0 min 0 min 0 W/m 22,5 km/h (4 Bft) 97,87 %
14.03.2019 03:34 6,0 C 5,6 C 5,0 C 91 % 1006,9 hPa 0,0 l/m 0 min 0 min 0 W/m 16,1 km/h (3 Bft) 97,87 %
14.03.2019 03:36 6,0 C 5,6 C 5,0 C 91 % 1006,9 hPa 0,0 l/m 0 min 0 min 0 W/m 16,1 km/h (3 Bft) 100,00 %
14.03.2019 03:38 6,0 C 5,6 C 5,0 C 91 % 1007,0 hPa 0,0 l/m 0 min 0 min 0 W/m 16,1 km/h (3 Bft) 100,00 %
14.03.2019 03:40 6,1 C 5,6 C 5,0 C 91 % 1007,0 hPa 0,0 l/m 0 min 0 min 0 W/m 25,7 km/h (4 Bft) 100,00 %
14.03.2019 03:42 6,1 C 6,1 C 5,0 C 91 % 1007,0 hPa 0,0 l/m 0 min 0 min 0 W/m 16,1 km/h (3 Bft) 100,00 %
14.03.2019 03:44 6,1 C 5,6 C 5,0 C 91 % 1006,9 hPa 0,0 l/m 0 min 0 min 0 W/m 9,7 km/h (2 Bft) 100,00 %
14.03.2019 03:46 6,1 C 5,6 C 5,0 C 91 % 1006,9 hPa 0,0 l/m 0 min 0 min 0 W/m 9,7 km/h (2 Bft) 100,00 %
14.03.2019 03:48 6,1 C 5,6 C 5,0 C 91 % 1006,9 hPa 0,0 l/m 0 min 0 min 0 W/m 19,3 km/h (3 Bft) 100,00 %
14.03.2019 03:50 6,1 C 5,6 C 5,0 C 91 % 1007,0 hPa 0,0 l/m 0 min 0 min 0 W/m 19,3 km/h (3 Bft) 100,00 %
14.03.2019 03:52 6,2 C 5,6 C 5,0 C 91 % 1006,9 hPa 0,0 l/m 0 min 0 min 0 W/m 12,9 km/h (3 Bft) 100,00 %
14.03.2019 03:54 6,2 C 5,6 C 5,0 C 90 % 1006,9 hPa 0,0 l/m 0 min 0 min 0 W/m 19,3 km/h (3 Bft) 100,00 %
14.03.2019 03:56 6,2 C 5,6 C 5,0 C 90 % 1006,9 hPa 0,0 l/m 0 min 0 min 0 W/m 16,1 km/h (3 Bft) 100,00 %
14.03.2019 03:58 6,2 C 5,6 C 5,0 C 90 % 1006,8 hPa 0,0 l/m 0 min 0 min 0 W/m 12,9 km/h (3 Bft) 100,00 %
14.03.2019 04:00 6,2 C 5,6 C 5,0 C 90 % 1006,9 hPa 0,0 l/m 0 min 0 min 0 W/m 9,7 km/h (2 Bft) 97,87 %
14.03.2019 04:02 6,2 C 5,6 C 5,0 C 90 % 1006,9 hPa 0,0 l/m 0 min 0 min 0 W/m 12,9 km/h (3 Bft) 100,00 %
14.03.2019 04:04 6,2 C 6,1 C 5,0 C 90 % 1006,9 hPa 0,0 l/m 0 min 0 min 0 W/m 12,9 km/h (3 Bft) 93,62 %
14.03.2019 04:06 6,2 C 5,6 C 5,0 C 90 % 1006,9 hPa 0,0 l/m 0 min 2 min 0 W/m 9,7 km/h (2 Bft) 93,48 %
14.03.2019 04:08 6,2 C 5,6 C 5,0 C 90 % 1006,9 hPa 0,0 l/m 0 min 0 min 0 W/m 6,4 km/h (2 Bft) 97,87 %
14.03.2019 04:10 6,2 C 5,6 C 5,0 C 90 % 1006,9 hPa 0,0 l/m 0 min 0 min 0 W/m 16,1 km/h (3 Bft) 97,87 %
14.03.2019 04:12 6,2 C 5,6 C 5,0 C 90 % 1006,8 hPa 0,0 l/m 0 min 0 min 0 W/m 12,9 km/h (3 Bft) 97,87 %
14.03.2019 04:14 6,3 C 5,6 C 5,0 C 90 % 1006,7 hPa 0,0 l/m 0 min 0 min 0 W/m 12,9 km/h (3 Bft) 97,87 %
14.03.2019 04:16 6,3 C 5,6 C 5,0 C 90 % 1006,6 hPa 0,0 l/m 0 min 0 min 0 W/m 9,7 km/h (2 Bft) 95,74 %
14.03.2019 04:18 6,2 C 5,6 C 5,0 C 90 % 1006,6 hPa 0,0 l/m 0 min 0 min 0 W/m 16,1 km/h (3 Bft) 97,83 %
14.03.2019 04:20 6,3 C 5,6 C 5,0 C 90 % 1006,5 hPa 0,0 l/m 0 min 0 min 0 W/m 12,9 km/h (3 Bft) 97,87 %
14.03.2019 04:22 6,2 C 5,6 C 5,0 C 90 % 1006,5 hPa 0,0 l/m 0 min 0 min 0 W/m 12,9 km/h (3 Bft) 95,74 %
14.03.2019 04:24 6,3 C 5,6 C 5,0 C 90 % 1006,4 hPa 0,0 l/m 0 min 0 min 0 W/m 9,7 km/h (2 Bft) 95,74 %
14.03.2019 04:26 6,3 C 5,6 C 5,0 C 90 % 1006,4 hPa 0,0 l/m 0 min 0 min 0 W/m 22,5 km/h (4 Bft) 93,62 %
14.03.2019 04:28 6,2 C 5,6 C 5,0 C 90 % 1006,5 hPa 0,0 l/m 0 min 0 min 0 W/m 16,1 km/h (3 Bft) 93,62 %
14.03.2019 04:30 6,2 C 5,6 C 5,0 C 90 % 1006,4 hPa 0,0 l/m 0 min 0 min 0 W/m 12,9 km/h (3 Bft) 95,65 %
14.03.2019 04:32 6,2 C 5,6 C 5,0 C 90 % 1006,4 hPa 0,0 l/m 0 min 0 min 0 W/m 19,3 km/h (3 Bft) 95,74 %
14.03.2019 04:34 6,2 C 5,6 C 5,0 C 90 % 1006,4 hPa 0,0 l/m 0 min 0 min 0 W/m 19,3 km/h (3 Bft) 93,62 %
14.03.2019 04:36 6,2 C 5,6 C 5,0 C 90 % 1006,4 hPa 0,0 l/m 0 min 0 min 0 W/m 22,5 km/h (4 Bft) 95,74 %
14.03.2019 04:38 6,2 C 6,1 C 5,0 C 90 % 1006,4 hPa 0,0 l/m 0 min 0 min 0 W/m 22,5 km/h (4 Bft) 95,74 %
14.03.2019 04:40 6,2 C 5,6 C 5,0 C 89 % 1006,4 hPa 0,0 l/m 0 min 0 min 0 W/m 22,5 km/h (4 Bft) 95,65 %
14.03.2019 04:42 6,2 C 5,6 C 5,0 C 89 % 1006,4 hPa 0,0 l/m 0 min 0 min 0 W/m 16,1 km/h (3 Bft) 95,74 %
14.03.2019 04:44 6,2 C 6,1 C 5,0 C 89 % 1006,5 hPa 0,0 l/m 0 min 0 min 0 W/m 19,3 km/h (3 Bft) 93,62 %
14.03.2019 04:46 6,2 C 6,1 C 5,0 C 89 % 1006,4 hPa 0,0 l/m 0 min 0 min 0 W/m 12,9 km/h (3 Bft) 91,49 %
14.03.2019 04:48 6,2 C 6,1 C 5,0 C 89 % 1006,4 hPa 0,0 l/m 0 min 0 min 0 W/m 19,3 km/h (3 Bft) 93,62 %
14.03.2019 04:50 6,2 C 5,6 C 5,0 C 89 % 1006,5 hPa 0,0 l/m 0 min 0 min 0 W/m 16,1 km/h (3 Bft) 91,49 %
14.03.2019 04:52 6,2 C 5,6 C 5,0 C 89 % 1006,4 hPa 0,0 l/m 0 min 0 min 0 W/m 22,5 km/h (4 Bft) 93,48 %
14.03.2019 04:54 6,2 C 5,6 C 5,0 C 88 % 1006,4 hPa 0,0 l/m 0 min 0 min 0 W/m 22,5 km/h (4 Bft) 93,62 %
14.03.2019 04:56 6,2 C 5,6 C 5,0 C 88 % 1006,3 hPa 0,0 l/m 0 min 0 min 0 W/m 16,1 km/h (3 Bft) 93,62 %
14.03.2019 04:58 6,2 C 5,6 C 5,0 C 88 % 1006,4 hPa 0,0 l/m 0 min 0 min 0 W/m 25,7 km/h (4 Bft) 95,74 %
14.03.2019 05:00 6,2 C 5,6 C 5,0 C 88 % 1006,3 hPa 0,0 l/m 0 min 0 min 0 W/m 16,1 km/h (3 Bft) 93,62 %
14.03.2019 05:02 6,2 C 5,6 C 5,0 C 88 % 1006,3 hPa 0,0 l/m 0 min 0 min 0 W/m 19,3 km/h (3 Bft) 93,62 %
14.03.2019 05:04 6,2 C 5,6 C 5,0 C 88 % 1006,3 hPa 0,0 l/m 0 min 0 min 0 W/m 19,3 km/h (3 Bft) 95,65 %
14.03.2019 05:05 6,2 C 5,6 C 5,0 C 88 % 1006,2 hPa 0,0 l/m 0 min 0 min 0 W/m 19,3 km/h (3 Bft) 98,25 %
14.03.2019 05:10 6,2 C 5,6 C 5,0 C 87 % 1006,2 hPa 0,0 l/m 0 min 0 min 0 W/m 22,5 km/h (4 Bft) 100,00 %
14.03.2019 05:12 6,2 C 5,6 C 5,0 C 87 % 1006,2 hPa 0,0 l/m 0 min 0 min 0 W/m 29,0 km/h (5 Bft) 100,00 %
14.03.2019 05:14 6,2 C 5,6 C 5,0 C 87 % 1006,1 hPa 0,0 l/m 0 min 0 min 0 W/m 22,5 km/h (4 Bft) 93,62 %
14.03.2019 05:19 6,2 C 5,6 C 5,0 C 87 % 1006,1 hPa 0,0 l/m 0 min 0 min 0 W/m 19,3 km/h (3 Bft) 95,45 %
14.03.2019 05:20 6,2 C 5,6 C 5,0 C 87 % 1006,1 hPa 0,0 l/m 0 min 0 min 0 W/m 9,7 km/h (2 Bft) 100,00 %
14.03.2019 05:22 6,2 C 5,6 C 5,0 C 86 % 1006,1 hPa 0,0 l/m 0 min 0 min 0 W/m 12,9 km/h (3 Bft) 95,74 %
14.03.2019 05:24 6,2 C 5,6 C 5,0 C 86 % 1005,9 hPa 0,0 l/m 0 min 0 min 0 W/m 19,3 km/h (3 Bft) 97,87 %
14.03.2019 05:26 6,2 C 5,6 C 5,0 C 86 % 1005,9 hPa 0,0 l/m 0 min 0 min 0 W/m 16,1 km/h (3 Bft) 95,65 %
14.03.2019 05:28 6,2 C 5,6 C 5,0 C 86 % 1005,9 hPa 0,0 l/m 0 min 0 min 0 W/m 22,5 km/h (4 Bft) 97,87 %
14.03.2019 05:30 6,2 C 5,6 C 5,0 C 86 % 1005,9 hPa 0,0 l/m 0 min 0 min 0 W/m 12,9 km/h (3 Bft) 97,87 %
14.03.2019 05:32 6,2 C 5,6 C 5,0 C 86 % 1005,9 hPa 0,0 l/m 0 min 0 min 0 W/m 19,3 km/h (3 Bft) 97,87 %
14.03.2019 05:34 6,2 C 5,6 C 5,0 C 86 % 1005,9 hPa 0,0 l/m 0 min 0 min 0 W/m 19,3 km/h (3 Bft) 100,00 %
14.03.2019 05:36 6,2 C 5,6 C 5,0 C 86 % 1005,7 hPa 0,0 l/m 0 min 0 min 0 W/m 16,1 km/h (3 Bft) 98,28 %
14.03.2019 05:38 6,2 C 5,6 C 5,0 C 86 % 1005,7 hPa 0,0 l/m 0 min 0 min 0 W/m 22,5 km/h (4 Bft) 100,00 %
14.03.2019 05:40 6,2 C 5,6 C 5,0 C 86 % 1005,7 hPa 0,0 l/m 0 min 0 min 0 W/m 12,9 km/h (3 Bft) 97,87 %
14.03.2019 05:42 6,2 C 5,6 C 5,0 C 86 % 1005,5 hPa 0,0 l/m 0 min 0 min 0 W/m 16,1 km/h (3 Bft) 100,00 %
14.03.2019 05:44 6,2 C 5,6 C 5,0 C 86 % 1005,4 hPa 0,0 l/m 0 min 0 min 0 W/m 19,3 km/h (3 Bft) 97,87 %
14.03.2019 05:46 6,2 C 5,6 C 5,0 C 86 % 1005,4 hPa 0,0 l/m 0 min 0 min 0 W/m 16,1 km/h (3 Bft) 100,00 %
14.03.2019 05:48 6,2 C 5,6 C 5,0 C 86 % 1005,4 hPa 0,0 l/m 0 min 0 min 0 W/m 25,7 km/h (4 Bft) 100,00 %
14.03.2019 05:50 6,2 C 5,6 C 5,0 C 86 % 1005,3 hPa 0,0 l/m 0 min 0 min 0 W/m 19,3 km/h (3 Bft) 100,00 %
14.03.2019 05:52 6,1 C 5,6 C 5,0 C 86 % 1005,2 hPa 0,0 l/m 0 min 0 min 0 W/m 9,7 km/h (2 Bft) 100,00 %
14.03.2019 05:54 6,1 C 5,6 C 5,0 C 86 % 1005,5 hPa 0,0 l/m 0 min 0 min 0 W/m 12,9 km/h (3 Bft) 100,00 %
14.03.2019 05:56 6,1 C 5,6 C 5,0 C 86 % 1005,5 hPa 0,0 l/m 0 min 0 min 0 W/m 16,1 km/h (3 Bft) 100,00 %
14.03.2019 05:58 6,1 C 5,6 C 5,0 C 86 % 1005,5 hPa 0,0 l/m 0 min 0 min 0 W/m 16,1 km/h (3 Bft) 100,00 %
14.03.2019 06:00 6,1 C 5,6 C 5,0 C 86 % 1005,5 hPa 0,0 l/m 0 min 0 min 0 W/m 9,7 km/h (2 Bft) 97,87 %
14.03.2019 06:02 6,1 C 5,6 C 5,0 C 86 % 1005,5 hPa 0,0 l/m 0 min 0 min 0 W/m 16,1 km/h (3 Bft) 97,83 %
14.03.2019 06:04 6,1 C 5,6 C 5,0 C 86 % 1005,5 hPa 0,0 l/m 0 min 0 min 0 W/m 12,9 km/h (3 Bft) 100,00 %
14.03.2019 06:08 6,1 C 5,6 C 5,0 C 86 % 1005,2 hPa 0,0 l/m 0 min 0 min 0 W/m 16,1 km/h (3 Bft) 100,00 %
14.03.2019 06:10 6,1 C 5,6 C 5,0 C 86 % 1005,1 hPa 0,0 l/m 0 min 0 min 0 W/m 16,1 km/h (3 Bft) 97,87 %
14.03.2019 06:12 6,1 C 5,6 C 5,0 C 86 % 1005,0 hPa 0,0 l/m 0 min 0 min 0 W/m 19,3 km/h (3 Bft) 100,00 %
14.03.2019 06:14 6,1 C 5,6 C 5,0 C 86 % 1004,9 hPa 0,0 l/m 0 min 0 min 0 W/m 16,1 km/h (3 Bft) 100,00 %
14.03.2019 06:16 6,1 C 5,6 C 5,0 C 86 % 1004,9 hPa 0,0 l/m 0 min 0 min 0 W/m 16,1 km/h (3 Bft) 100,00 %
14.03.2019 06:18 6,0 C 5,6 C 5,0 C 86 % 1004,8 hPa 0,0 l/m 0 min 0 min 0 W/m 9,7 km/h (2 Bft) 100,00 %
14.03.2019 06:20 6,0 C 5,6 C 4,4 C 86 % 1004,7 hPa 0,0 l/m 0 min 0 min 0 W/m 16,1 km/h (3 Bft) 100,00 %
14.03.2019 06:22 6,0 C 5,6 C 5,0 C 87 % 1004,8 hPa 0,0 l/m 0 min 0 min 0 W/m 22,5 km/h (4 Bft) 100,00 %
14.03.2019 06:24 6,0 C 5,6 C 5,0 C 87 % 1004,8 hPa 0,0 l/m 0 min 0 min 0 W/m 22,5 km/h (4 Bft) 100,00 %
14.03.2019 06:26 6,0 C 5,6 C 5,0 C 87 % 1004,7 hPa 0,0 l/m 0 min 0 min 0 W/m 22,5 km/h (4 Bft) 100,00 %
14.03.2019 06:28 6,0 C 5,6 C 5,0 C 87 % 1004,6 hPa 0,0 l/m 0 min 0 min 0 W/m 16,1 km/h (3 Bft) 97,87 %
14.03.2019 06:30 6,0 C 5,6 C 5,0 C 87 % 1004,6 hPa 0,0 l/m 0 min 0 min 0 W/m 16,1 km/h (3 Bft) 100,00 %
14.03.2019 06:32 6,0 C 5,6 C 5,0 C 87 % 1004,7 hPa 0,0 l/m 0 min 0 min 0 W/m 25,7 km/h (4 Bft) 100,00 %
14.03.2019 06:34 6,0 C 5,6 C 5,0 C 87 % 1004,8 hPa 0,0 l/m 0 min 0 min 0 W/m 25,7 km/h (4 Bft) 97,87 %
14.03.2019 06:36 6,0 C 5,6 C 5,0 C 87 % 1004,6 hPa 0,0 l/m 0 min 0 min 0 W/m 19,3 km/h (3 Bft) 100,00 %
14.03.2019 06:38 6,0 C 5,6 C 5,0 C 87 % 1004,4 hPa 0,0 l/m 0 min 0 min 0 W/m 29,0 km/h (5 Bft) 100,00 %
14.03.2019 06:40 6,1 C 5,6 C 5,0 C 87 % 1004,4 hPa 0,0 l/m 0 min 2 min 0 W/m 12,9 km/h (3 Bft) 100,00 %
14.03.2019 06:42 6,1 C 5,0 C 4,4 C 87 % 1004,3 hPa 0,0 l/m 0 min 2 min 0 W/m 12,9 km/h (3 Bft) 100,00 %
14.03.2019 06:44 6,1 C 5,0 C 4,4 C 87 % 1004,1 hPa 0,0 l/m 0 min 2 min 0 W/m 12,9 km/h (3 Bft) 95,74 %
14.03.2019 06:46 6,1 C 5,0 C 4,4 C 88 % 1004,3 hPa 0,0 l/m 0 min 2 min 0 W/m 16,1 km/h (3 Bft) 95,74 %
14.03.2019 06:48 6,1 C 5,0 C 4,4 C 88 % 1004,2 hPa 0,0 l/m 0 min 2 min 0 W/m 25,7 km/h (4 Bft) 100,00 %
14.03.2019 06:50 6,1 C 5,0 C 4,4 C 88 % 1004,4 hPa 0,0 l/m 0 min 2 min 0 W/m 22,5 km/h (4 Bft) 97,87 %
14.03.2019 06:52 6,1 C 5,0 C 4,4 C 88 % 1004,2 hPa 0,0 l/m 0 min 2 min 0 W/m 22,5 km/h (4 Bft) 97,87 %
14.03.2019 06:54 6,1 C 5,0 C 4,4 C 88 % 1004,3 hPa 0,0 l/m 0 min 2 min 0 W/m 22,5 km/h (4 Bft) 97,87 %
14.03.2019 06:56 6,1 C 5,0 C 4,4 C 89 % 1004,2 hPa 0,0 l/m 0 min 2 min 0 W/m 16,1 km/h (3 Bft) 100,00 %
14.03.2019 06:58 6,1 C 4,4 C 4,4 C 89 % 1004,2 hPa 0,0 l/m 0 min 2 min 0 W/m 19,3 km/h (3 Bft) 100,00 %
14.03.2019 07:00 6,1 C 4,4 C 4,4 C 89 % 1004,2 hPa 0,0 l/m 0 min 2 min 0 W/m 19,3 km/h (3 Bft) 97,87 %
14.03.2019 07:02 6,0 C 4,4 C 4,4 C 89 % 1004,2 hPa 0,0 l/m 0 min 2 min 0 W/m 32,2 km/h (5 Bft) 97,83 %
14.03.2019 07:04 6,0 C 4,4 C 3,9 C 89 % 1004,2 hPa 0,0 l/m 0 min 2 min 4 W/m 16,1 km/h (3 Bft) 97,87 %
14.03.2019 07:06 6,0 C 4,4 C 3,9 C 89 % 1004,1 hPa 0,0 l/m 0 min 2 min 5 W/m 16,1 km/h (3 Bft) 96,61 %
14.03.2019 07:08 6,0 C 4,4 C 3,9 C 90 % 1004,0 hPa 0,0 l/m 0 min 2 min 5 W/m 16,1 km/h (3 Bft) 97,14 %
14.03.2019 07:10 5,9 C 4,4 C 3,9 C 90 % 1004,1 hPa 0,0 l/m 0 min 2 min 5 W/m 19,3 km/h (3 Bft) 97,87 %
14.03.2019 07:12 5,9 C 4,4 C 3,9 C 90 % 1004,1 hPa 0,0 l/m 0 min 2 min 5 W/m 25,7 km/h (4 Bft) 97,83 %
14.03.2019 07:14 5,9 C 4,4 C 3,9 C 90 % 1004,1 hPa 0,0 l/m 0 min 2 min 5 W/m 9,7 km/h (2 Bft) 97,87 %
14.03.2019 07:16 5,9 C 4,4 C 3,9 C 90 % 1004,0 hPa 0,2 l/m 0 min 2 min 5 W/m 19,3 km/h (3 Bft) 97,87 %
14.03.2019 07:18 5,9 C 4,4 C 3,9 C 91 % 1004,0 hPa 0,0 l/m 0 min 2 min 6 W/m 22,5 km/h (4 Bft) 93,62 %
14.03.2019 07:20 5,9 C 4,4 C 3,9 C 91 % 1003,7 hPa 0,0 l/m 0 min 2 min 7 W/m 16,1 km/h (3 Bft) 97,87 %
14.03.2019 07:22 5,9 C 4,4 C 3,9 C 91 % 1003,6 hPa 0,0 l/m 0 min 2 min 8 W/m 22,5 km/h (4 Bft) 93,62 %
14.03.2019 07:24 5,8 C 4,4 C 3,9 C 91 % 1003,6 hPa 0,0 l/m 0 min 2 min 11 W/m 16,1 km/h (3 Bft) 95,65 %
14.03.2019 07:26 5,8 C 4,4 C 3,9 C 91 % 1003,5 hPa 0,0 l/m 0 min 2 min 11 W/m 25,7 km/h (4 Bft) 93,62 %
14.03.2019 07:28 5,8 C 4,4 C 3,9 C 92 % 1003,5 hPa 0,0 l/m 0 min 2 min 12 W/m 29,0 km/h (5 Bft) 93,62 %
14.03.2019 07:30 5,8 C 4,4 C 3,9 C 92 % 1003,5 hPa 0,0 l/m 0 min 2 min 12 W/m 19,3 km/h (3 Bft) 93,62 %
14.03.2019 07:32 5,8 C 4,4 C 3,9 C 92 % 1003,4 hPa 0,0 l/m 0 min 2 min 11 W/m 38,6 km/h (5 Bft) 93,62 %
14.03.2019 07:34 5,8 C 4,4 C 3,9 C 92 % 1003,5 hPa 0,0 l/m 0 min 2 min 11 W/m 19,3 km/h (3 Bft) 93,62 %
14.03.2019 07:36 5,8 C 4,4 C 3,9 C 92 % 1003,5 hPa 0,0 l/m 0 min 2 min 11 W/m 25,7 km/h (4 Bft) 91,38 %
14.03.2019 07:38 5,8 C 4,4 C 3,9 C 92 % 1003,3 hPa 0,0 l/m 0 min 2 min 11 W/m 29,0 km/h (5 Bft) 94,29 %
14.03.2019 07:40 5,8 C 4,4 C 3,9 C 92 % 1003,3 hPa 0,0 l/m 0 min 2 min 12 W/m 41,8 km/h (6 Bft) 89,36 %
14.03.2019 07:42 5,8 C 4,4 C 3,9 C 92 % 1003,3 hPa 0,0 l/m 0 min 2 min 12 W/m 25,7 km/h (4 Bft) 93,62 %
14.03.2019 07:44 5,8 C 4,4 C 3,9 C 93 % 1003,3 hPa 0,0 l/m 0 min 2 min 11 W/m 25,7 km/h (4 Bft) 93,62 %
14.03.2019 07:46 5,8 C 4,4 C 3,9 C 93 % 1003,2 hPa 0,0 l/m 0 min 2 min 11 W/m 25,7 km/h (4 Bft) 93,48 %
14.03.2019 07:48 5,8 C 4,4 C 3,9 C 93 % 1003,1 hPa 0,0 l/m 0 min 2 min 13 W/m 16,1 km/h (3 Bft) 93,62 %
14.03.2019 07:50 5,8 C 4,4 C 3,9 C 93 % 1003,1 hPa 0,0 l/m 0 min 2 min 13 W/m 16,1 km/h (3 Bft) 91,49 %
14.03.2019 07:52 5,8 C 4,4 C 4,4 C 93 % 1003,1 hPa 0,0 l/m 0 min 2 min 14 W/m 22,5 km/h (4 Bft) 93,62 %
14.03.2019 07:54 5,8 C 4,4 C 4,4 C 93 % 1003,0 hPa 0,0 l/m 0 min 2 min 13 W/m 22,5 km/h (4 Bft) 95,74 %
14.03.2019 07:56 5,8 C 5,0 C 4,4 C 93 % 1002,8 hPa 0,0 l/m 0 min 2 min 13 W/m 22,5 km/h (4 Bft) 93,62 %
14.03.2019 07:58 5,8 C 5,0 C 4,4 C 93 % 1002,8 hPa 0,0 l/m 0 min 2 min 12 W/m 22,5 km/h (4 Bft) 86,96 %
14.03.2019 08:00 5,8 C 5,0 C 4,4 C 93 % 1002,8 hPa 0,0 l/m 0 min 2 min 12 W/m 12,9 km/h (3 Bft) 95,74 %
14.03.2019 08:02 5,8 C 5,0 C 4,4 C 93 % 1002,8 hPa 0,0 l/m 0 min 2 min 16 W/m 25,7 km/h (4 Bft) 93,62 %
14.03.2019 08:04 5,8 C 5,0 C 4,4 C 93 % 1002,8 hPa 0,0 l/m 0 min 2 min 19 W/m 22,5 km/h (4 Bft) 95,74 %
14.03.2019 08:06 5,8 C 5,0 C 4,4 C 93 % 1002,7 hPa 0,0 l/m 0 min 2 min 18 W/m 22,5 km/h (4 Bft) 96,55 %
14.03.2019 08:08 5,8 C 5,0 C 4,4 C 93 % 1002,8 hPa 0,0 l/m 0 min 2 min 18 W/m 22,5 km/h (4 Bft) 91,67 %
14.03.2019 08:10 5,8 C 4,4 C 4,4 C 93 % 1002,7 hPa 0,0 l/m 0 min 2 min 18 W/m 16,1 km/h (3 Bft) 97,87 %
14.03.2019 08:12 5,8 C 5,0 C 4,4 C 93 % 1002,5 hPa 0,0 l/m 0 min 2 min 20 W/m 22,5 km/h (4 Bft) 93,48 %
14.03.2019 08:14 5,8 C 5,0 C 4,4 C 93 % 1002,5 hPa 0,0 l/m 0 min 2 min 20 W/m 19,3 km/h (3 Bft) 97,87 %
14.03.2019 08:16 5,8 C 5,0 C 4,4 C 93 % 1002,4 hPa 0,0 l/m 0 min 2 min 15 W/m 25,7 km/h (4 Bft) 97,87 %
14.03.2019 08:18 5,8 C 5,0 C 4,4 C 93 % 1002,4 hPa 0,0 l/m 0 min 2 min 14 W/m 32,2 km/h (5 Bft) 97,87 %
14.03.2019 08:20 5,8 C 4,4 C 4,4 C 93 % 1002,3 hPa 0,0 l/m 0 min 2 min 14 W/m 25,7 km/h (4 Bft) 95,74 %
14.03.2019 08:22 5,9 C 4,4 C 4,4 C 94 % 1002,2 hPa 0,0 l/m 0 min 2 min 17 W/m 22,5 km/h (4 Bft) 97,83 %
14.03.2019 08:24 5,9 C 4,4 C 4,4 C 94 % 1002,2 hPa 0,0 l/m 0 min 2 min 20 W/m 19,3 km/h (3 Bft) 100,00 %
14.03.2019 08:26 5,9 C 5,0 C 4,4 C 94 % 1002,2 hPa 0,0 l/m 0 min 2 min 20 W/m 25,7 km/h (4 Bft) 100,00 %
14.03.2019 08:28 5,9 C 4,4 C 4,4 C 94 % 1002,2 hPa 0,2 l/m 0 min 2 min 22 W/m 25,7 km/h (4 Bft) 100,00 %
14.03.2019 08:30 5,9 C 4,4 C 4,4 C 94 % 1002,1 hPa 0,0 l/m 0 min 2 min 23 W/m 19,3 km/h (3 Bft) 95,74 %
14.03.2019 08:32 5,9 C 5,0 C 4,4 C 94 % 1002,1 hPa 0,0 l/m 0 min 2 min 24 W/m 22,5 km/h (4 Bft) 95,74 %
14.03.2019 08:34 5,9 C 5,0 C 4,4 C 94 % 1002,1 hPa 0,0 l/m 0 min 2 min 25 W/m 22,5 km/h (4 Bft) 100,00 %
14.03.2019 08:36 5,9 C 5,0 C 4,4 C 94 % 1002,0 hPa 0,0 l/m 0 min 2 min 26 W/m 25,7 km/h (4 Bft) 100,00 %
14.03.2019 08:38 5,9 C 5,0 C 4,4 C 94 % 1001,9 hPa 0,0 l/m 0 min 2 min 28 W/m 32,2 km/h (5 Bft) 100,00 %
14.03.2019 08:40 5,9 C 5,0 C 4,4 C 94 % 1001,9 hPa 0,0 l/m 0 min 2 min 30 W/m 25,7 km/h (4 Bft) 97,56 %
14.03.2019 08:42 5,9 C 5,0 C 4,4 C 94 % 1001,9 hPa 0,0 l/m 0 min 2 min 32 W/m 25,7 km/h (4 Bft) 100,00 %
14.03.2019 08:44 5,9 C 5,0 C 4,4 C 94 % 1001,9 hPa 0,0 l/m 0 min 2 min 30 W/m 35,4 km/h (5 Bft) 100,00 %
14.03.2019 08:46 5,9 C 5,0 C 4,4 C 94 % 1001,8 hPa 0,0 l/m 0 min 2 min 29 W/m 19,3 km/h (3 Bft) 100,00 %
14.03.2019 08:48 5,9 C 5,0 C 4,4 C 94 % 1001,7 hPa 0,2 l/m 0 min 2 min 29 W/m 35,4 km/h (5 Bft) 100,00 %
14.03.2019 08:50 5,9 C 5,0 C 4,4 C 94 % 1001,7 hPa 0,0 l/m 0 min 2 min 28 W/m 29,0 km/h (5 Bft) 100,00 %
14.03.2019 08:52 5,9 C 5,0 C 4,4 C 94 % 1001,6 hPa 0,0 l/m 0 min 2 min 31 W/m 19,3 km/h (3 Bft) 100,00 %
14.03.2019 08:54 5,9 C 5,0 C 4,4 C 94 % 1001,5 hPa 0,0 l/m 0 min 2 min 27 W/m 22,5 km/h (4 Bft) 100,00 %
14.03.2019 08:56 5,9 C 5,0 C 4,4 C 94 % 1001,5 hPa 0,2 l/m 0 min 2 min 26 W/m 22,5 km/h (4 Bft) 100,00 %
14.03.2019 08:58 5,9 C 5,0 C 4,4 C 94 % 1001,5 hPa 0,0 l/m 0 min 2 min 28 W/m 22,5 km/h (4 Bft) 100,00 %
14.03.2019 09:00 5,9 C 5,0 C 4,4 C 94 % 1001,5 hPa 0,0 l/m 0 min 2 min 33 W/m 19,3 km/h (3 Bft) 100,00 %
14.03.2019 09:02 5,9 C 5,0 C 4,4 C 94 % 1001,5 hPa 0,0 l/m 0 min 2 min 30 W/m 22,5 km/h (4 Bft) 97,87 %
14.03.2019 09:04 5,9 C 5,0 C 4,4 C 94 % 1001,5 hPa 0,0 l/m 0 min 2 min 30 W/m 22,5 km/h (4 Bft) 100,00 %
14.03.2019 09:06 5,9 C 5,0 C 4,4 C 94 % 1001,3 hPa 0,2 l/m 0 min 2 min 29 W/m 35,4 km/h (5 Bft) 100,00 %
14.03.2019 09:08 5,9 C 5,0 C 4,4 C 94 % 1001,2 hPa 0,0 l/m 0 min 2 min 30 W/m 29,0 km/h (5 Bft) 100,00 %
14.03.2019 09:10 5,9 C 5,0 C 4,4 C 94 % 1001,2 hPa 0,0 l/m 0 min 2 min 31 W/m 22,5 km/h (4 Bft) 100,00 %
14.03.2019 09:12 5,9 C 5,0 C 4,4 C 94 % 1001,1 hPa 0,0 l/m 0 min 2 min 33 W/m 25,7 km/h (4 Bft) 100,00 %
14.03.2019 09:14 5,9 C 5,0 C 4,4 C 94 % 1001,0 hPa 0,0 l/m 0 min 2 min 35 W/m 25,7 km/h (4 Bft) 97,87 %
14.03.2019 09:16 5,9 C 5,0 C 4,4 C 94 % 1000,9 hPa 0,0 l/m 0 min 2 min 35 W/m 32,2 km/h (5 Bft) 100,00 %
14.03.2019 09:18 5,9 C 5,0 C 4,4 C 94 % 1000,9 hPa 0,2 l/m 0 min 2 min 38 W/m 25,7 km/h (4 Bft) 100,00 %
14.03.2019 09:20 5,9 C 5,0 C 4,4 C 95 % 1000,8 hPa 0,0 l/m 0 min 2 min 38 W/m 32,2 km/h (5 Bft) 100,00 %
14.03.2019 09:22 5,9 C 5,0 C 4,4 C 95 % 1000,7 hPa 0,0 l/m 0 min 2 min 35 W/m 38,6 km/h (5 Bft) 100,00 %
14.03.2019 09:24 5,9 C 5,0 C 4,4 C 95 % 1000,9 hPa 0,0 l/m 0 min 2 min 36 W/m 35,4 km/h (5 Bft) 100,00 %
14.03.2019 09:26 5,9 C 5,0 C 4,4 C 95 % 1000,5 hPa 0,0 l/m 0 min 2 min 38 W/m 22,5 km/h (4 Bft) 100,00 %
14.03.2019 09:28 5,9 C 5,0 C 4,4 C 95 % 1000,6 hPa 0,0 l/m 0 min 2 min 34 W/m 29,0 km/h (5 Bft) 100,00 %
14.03.2019 09:30 5,9 C 5,0 C 4,4 C 95 % 1000,6 hPa 0,2 l/m 0 min 2 min 32 W/m 16,1 km/h (3 Bft) 100,00 %
14.03.2019 09:32 5,9 C 5,0 C 4,4 C 95 % 1000,5 hPa 0,0 l/m 0 min 2 min 32 W/m 25,7 km/h (4 Bft) 100,00 %
14.03.2019 09:34 5,9 C 5,0 C 4,4 C 95 % 1000,4 hPa 0,0 l/m 0 min 2 min 29 W/m 29,0 km/h (5 Bft) 100,00 %
14.03.2019 09:36 5,9 C 5,0 C 4,4 C 95 % 1000,6 hPa 0,0 l/m 0 min 2 min 29 W/m 19,3 km/h (3 Bft) 98,31 %
14.03.2019 09:38 5,9 C 5,0 C 4,4 C 95 % 1000,5 hPa 0,0 l/m 0 min 2 min 33 W/m 25,7 km/h (4 Bft) 97,14 %
14.03.2019 09:40 5,9 C 5,0 C 4,4 C 95 % 1000,4 hPa 0,2 l/m 0 min 2 min 37 W/m 38,6 km/h (5 Bft) 95,74 %
14.03.2019 09:42 5,9 C 5,0 C 4,4 C 95 % 1000,4 hPa 0,0 l/m 0 min 2 min 31 W/m 25,7 km/h (4 Bft) 100,00 %
14.03.2019 09:44 5,9 C 5,0 C 4,4 C 95 % 1000,2 hPa 0,0 l/m 0 min 2 min 37 W/m 32,2 km/h (5 Bft) 100,00 %
14.03.2019 09:46 5,9 C 5,0 C 4,4 C 95 % 1000,2 hPa 0,0 l/m 0 min 2 min 38 W/m 25,7 km/h (4 Bft) 97,87 %
14.03.2019 09:48 5,9 C 5,0 C 4,4 C 95 % 1000,1 hPa 0,0 l/m 0 min 2 min 39 W/m 16,1 km/h (3 Bft) 97,87 %
14.03.2019 09:50 5,9 C 5,0 C 4,4 C 95 % 1000,1 hPa 0,2 l/m 0 min 2 min 40 W/m 22,5 km/h (4 Bft) 97,87 %
14.03.2019 09:52 5,9 C 5,0 C 4,4 C 95 % 1000,0 hPa 0,0 l/m 0 min 2 min 37 W/m 32,2 km/h (5 Bft) 100,00 %
14.03.2019 09:54 5,9 C 5,0 C 4,4 C 95 % 1000,0 hPa 0,0 l/m 0 min 2 min 36 W/m 29,0 km/h (5 Bft) 100,00 %
14.03.2019 09:56 5,9 C 5,0 C 4,4 C 95 % 1000,0 hPa 0,0 l/m 0 min 2 min 39 W/m 35,4 km/h (5 Bft) 97,87 %
14.03.2019 09:58 5,9 C 5,0 C 4,4 C 95 % 1000,0 hPa 0,2 l/m 0 min 2 min 45 W/m 25,7 km/h (4 Bft) 91,49 %
14.03.2019 10:00 5,9 C 5,0 C 4,4 C 95 % 1000,0 hPa 0,0 l/m 0 min 2 min 48 W/m 22,5 km/h (4 Bft) 95,74 %
14.03.2019 10:02 5,9 C 5,0 C 4,4 C 95 % 999,9 hPa 0,0 l/m 0 min 2 min 47 W/m 29,0 km/h (5 Bft) 91,49 %
14.03.2019 10:04 6,0 C 5,0 C 4,4 C 95 % 999,7 hPa 0,0 l/m 0 min 2 min 59 W/m 38,6 km/h (5 Bft) 95,74 %
14.03.2019 10:06 6,0 C 5,0 C 4,4 C 95 % 999,7 hPa 0,0 l/m 0 min 2 min 54 W/m 29,0 km/h (5 Bft) 96,55 %
14.03.2019 10:08 6,0 C 5,0 C 4,4 C 95 % 999,7 hPa 0,2 l/m 0 min 2 min 51 W/m 38,6 km/h (5 Bft) 94,29 %
14.03.2019 10:10 6,0 C 5,0 C 4,4 C 95 % 999,6 hPa 0,0 l/m 0 min 2 min 59 W/m 32,2 km/h (5 Bft) 95,74 %
14.03.2019 10:12 6,0 C 5,0 C 4,4 C 95 % 999,6 hPa 0,0 l/m 0 min 2 min 58 W/m 35,4 km/h (5 Bft) 95,74 %
14.03.2019 10:14 6,0 C 5,0 C 4,4 C 95 % 999,6 hPa 0,0 l/m 0 min 2 min 66 W/m 35,4 km/h (5 Bft) 95,74 %
14.03.2019 10:16 6,0 C 5,0 C 4,4 C 95 % 999,4 hPa 0,0 l/m 0 min 2 min 58 W/m 29,0 km/h (5 Bft) 93,62 %
14.03.2019 10:18 6,0 C 5,0 C 4,4 C 95 % 999,4 hPa 0,2 l/m 0 min 2 min 57 W/m 22,5 km/h (4 Bft) 95,65 %
14.03.2019 10:20 6,0 C 5,0 C 4,4 C 95 % 999,5 hPa 0,0 l/m 0 min 2 min 59 W/m 35,4 km/h (5 Bft) 93,62 %
14.03.2019 10:22 6,1 C 5,0 C 4,4 C 95 % 999,3 hPa 0,0 l/m 0 min 2 min 63 W/m 38,6 km/h (5 Bft) 93,62 %
14.03.2019 10:24 6,1 C 5,0 C 4,4 C 95 % 999,1 hPa 0,0 l/m 0 min 2 min 53 W/m 25,7 km/h (4 Bft) 93,62 %
14.03.2019 10:26 6,1 C 5,0 C 4,4 C 95 % 999,2 hPa 0,2 l/m 0 min 2 min 50 W/m 25,7 km/h (4 Bft) 95,74 %
14.03.2019 10:28 6,1 C 5,0 C 4,4 C 95 % 999,1 hPa 0,0 l/m 0 min 2 min 57 W/m 38,6 km/h (5 Bft) 95,74 %
14.03.2019 10:30 6,0 C 5,0 C 4,4 C 95 % 999,0 hPa 0,0 l/m 0 min 2 min 56 W/m 32,2 km/h (5 Bft) 95,65 %
14.03.2019 10:32 6,0 C 5,0 C 4,4 C 95 % 999,0 hPa 0,0 l/m 0 min 2 min 46 W/m 41,8 km/h (6 Bft) 95,74 %
14.03.2019 10:34 6,1 C 5,0 C 4,4 C 95 % 999,0 hPa 0,2 l/m 0 min 2 min 59 W/m 19,3 km/h (3 Bft) 93,62 %
14.03.2019 10:36 6,1 C 5,0 C 4,4 C 95 % 998,9 hPa 0,0 l/m 0 min 2 min 65 W/m 25,7 km/h (4 Bft) 96,61 %
14.03.2019 10:38 6,1 C 5,0 C 4,4 C 95 % 998,8 hPa 0,0 l/m 0 min 2 min 69 W/m 25,7 km/h (4 Bft) 94,29 %
14.03.2019 10:40 6,1 C 5,0 C 4,4 C 95 % 998,8 hPa 0,0 l/m 0 min 2 min 67 W/m 25,7 km/h (4 Bft) 97,83 %
14.03.2019 10:42 6,1 C 5,0 C 4,4 C 95 % 998,7 hPa 0,0 l/m 0 min 2 min 52 W/m 32,2 km/h (5 Bft) 95,74 %
14.03.2019 10:44 6,1 C 5,0 C 4,4 C 95 % 998,6 hPa 0,2 l/m 0 min 2 min 51 W/m 35,4 km/h (5 Bft) 93,62 %
14.03.2019 10:46 6,1 C 5,0 C 4,4 C 95 % 998,5 hPa 0,0 l/m 0 min 2 min 60 W/m 22,5 km/h (4 Bft) 97,87 %
14.03.2019 10:48 6,1 C 5,0 C 4,4 C 95 % 998,4 hPa 0,0 l/m 0 min 2 min 87 W/m 29,0 km/h (5 Bft) 97,87 %
14.03.2019 10:50 6,1 C 5,0 C 4,4 C 95 % 998,3 hPa 0,0 l/m 0 min 2 min 113 W/m 29,0 km/h (5 Bft) 97,87 %
14.03.2019 10:52 6,1 C 5,0 C 4,4 C 95 % 998,1 hPa 0,0 l/m 0 min 2 min 139 W/m 45,1 km/h (6 Bft) 95,65 %
14.03.2019 10:54 6,1 C 5,0 C 4,4 C 95 % 998,1 hPa 0,0 l/m 0 min 2 min 139 W/m 32,2 km/h (5 Bft) 97,87 %
14.03.2019 10:56 6,2 C 5,0 C 4,4 C 95 % 997,9 hPa 0,2 l/m 0 min 2 min 119 W/m 29,0 km/h (5 Bft) 97,87 %
14.03.2019 10:58 6,1 C 5,0 C 4,4 C 95 % 998,0 hPa 0,0 l/m 0 min 2 min 110 W/m 32,2 km/h (5 Bft) 97,87 %
14.03.2019 11:00 6,2 C 5,0 C 4,4 C 95 % 997,9 hPa 0,0 l/m 0 min 2 min 97 W/m 32,2 km/h (5 Bft) 95,74 %
14.03.2019 11:02 6,2 C 5,0 C 4,4 C 95 % 997,9 hPa 0,0 l/m 0 min 2 min 127 W/m 32,2 km/h (5 Bft) 95,74 %
14.03.2019 11:04 6,2 C 5,0 C 4,4 C 95 % 997,9 hPa 0,0 l/m 0 min 2 min 144 W/m 32,2 km/h (5 Bft) 93,48 %
14.03.2019 11:06 6,2 C 5,0 C 4,4 C 95 % 997,9 hPa 0,0 l/m 0 min 2 min 166 W/m 32,2 km/h (5 Bft) 97,87 %
14.03.2019 11:08 6,2 C 5,0 C 4,4 C 94 % 997,8 hPa 0,0 l/m 0 min 2 min 158 W/m 35,4 km/h (5 Bft) 100,00 %
14.03.2019 11:10 6,2 C 5,0 C 5,0 C 94 % 997,8 hPa 0,0 l/m 0 min 2 min 133 W/m 22,5 km/h (4 Bft) 97,87 %
14.03.2019 11:12 6,2 C 5,0 C 5,0 C 94 % 997,7 hPa 0,2 l/m 0 min 2 min 121 W/m 25,7 km/h (4 Bft) 95,74 %
14.03.2019 11:14 6,3 C 5,6 C 5,0 C 94 % 997,8 hPa 0,0 l/m 0 min 2 min 137 W/m 22,5 km/h (4 Bft) 97,87 %
14.03.2019 11:16 6,3 C 5,6 C 5,0 C 94 % 997,6 hPa 0,0 l/m 0 min 2 min 123 W/m 22,5 km/h (4 Bft) 97,83 %
14.03.2019 11:18 6,3 C 5,0 C 5,0 C 94 % 997,4 hPa 0,0 l/m 0 min 2 min 143 W/m 32,2 km/h (5 Bft) 97,87 %
14.03.2019 11:20 6,3 C 5,6 C 5,0 C 94 % 997,5 hPa 0,0 l/m 0 min 2 min 131 W/m 25,7 km/h (4 Bft) 95,74 %
14.03.2019 11:22 6,3 C 5,6 C 5,0 C 94 % 997,5 hPa 0,0 l/m 0 min 2 min 135 W/m 19,3 km/h (3 Bft) 97,87 %
14.03.2019 11:24 6,4 C 5,6 C 5,0 C 94 % 997,4 hPa 0,2 l/m 0 min 2 min 139 W/m 29,0 km/h (5 Bft) 97,87 %
14.03.2019 11:26 6,4 C 5,6 C 5,0 C 94 % 997,4 hPa 0,0 l/m 0 min 2 min 138 W/m 29,0 km/h (5 Bft) 97,87 %
14.03.2019 11:28 6,4 C 5,6 C 5,0 C 94 % 997,3 hPa 0,0 l/m 0 min 2 min 116 W/m 32,2 km/h (5 Bft) 97,83 %
14.03.2019 11:30 6,4 C 5,6 C 5,0 C 94 % 997,2 hPa 0,0 l/m 0 min 2 min 113 W/m 32,2 km/h (5 Bft) 97,87 %
14.03.2019 11:32 6,4 C 5,6 C 5,0 C 94 % 997,2 hPa 0,0 l/m 0 min 2 min 116 W/m 32,2 km/h (5 Bft) 97,87 %
14.03.2019 11:34 6,4 C 5,6 C 5,0 C 94 % 997,1 hPa 0,0 l/m 0 min 2 min 92 W/m 22,5 km/h (4 Bft) 95,74 %
14.03.2019 11:36 6,4 C 5,6 C 5,0 C 94 % 997,1 hPa 0,0 l/m 0 min 2 min 99 W/m 25,7 km/h (4 Bft) 97,87 %
14.03.2019 11:38 6,5 C 5,6 C 5,0 C 94 % 997,0 hPa 0,2 l/m 0 min 2 min 96 W/m 35,4 km/h (5 Bft) 100,00 %
14.03.2019 11:40 6,5 C 5,6 C 5,0 C 94 % 996,9 hPa 0,0 l/m 0 min 2 min 92 W/m 22,5 km/h (4 Bft) 100,00 %
14.03.2019 11:42 6,5 C 5,6 C 5,0 C 94 % 996,8 hPa 0,0 l/m 0 min 2 min 104 W/m 25,7 km/h (4 Bft) 100,00 %
14.03.2019 11:44 6,6 C 5,6 C 5,0 C 94 % 996,8 hPa 0,2 l/m 0 min 2 min 98 W/m 32,2 km/h (5 Bft) 100,00 %
14.03.2019 11:46 6,6 C 5,6 C 5,0 C 94 % 996,6 hPa 0,0 l/m 0 min 2 min 113 W/m 32,2 km/h (5 Bft) 97,87 %
14.03.2019 11:48 6,6 C 5,6 C 5,0 C 94 % 996,6 hPa 0,0 l/m 0 min 2 min 120 W/m 32,2 km/h (5 Bft) 100,00 %
14.03.2019 11:50 6,6 C 5,6 C 5,0 C 94 % 996,7 hPa 0,0 l/m 0 min 2 min 108 W/m 29,0 km/h (5 Bft) 100,00 %
14.03.2019 11:52 6,6 C 5,6 C 5,0 C 94 % 996,5 hPa 0,2 l/m 0 min 2 min 100 W/m 32,2 km/h (5 Bft) 100,00 %
14.03.2019 11:54 6,6 C 5,6 C 5,0 C 94 % 996,5 hPa 0,0 l/m 0 min 2 min 117 W/m 25,7 km/h (4 Bft) 95,74 %
14.03.2019 11:56 6,6 C 5,6 C 5,0 C 94 % 996,4 hPa 0,0 l/m 0 min 2 min 123 W/m 38,6 km/h (5 Bft) 100,00 %
14.03.2019 11:58 6,6 C 5,6 C 5,0 C 94 % 996,4 hPa 0,0 l/m 0 min 2 min 136 W/m 32,2 km/h (5 Bft) 100,00 %
14.03.2019 12:00 6,6 C 5,6 C 5,0 C 94 % 996,3 hPa 0,2 l/m 0 min 2 min 135 W/m 67,6 km/h (8 Bft) 100,00 %
14.03.2019 12:02 6,6 C 5,6 C 5,0 C 94 % 996,1 hPa 0,0 l/m 0 min 2 min 142 W/m 41,8 km/h (6 Bft) 100,00 %
14.03.2019 12:04 6,6 C 5,6 C 5,0 C 94 % 996,0 hPa 0,0 l/m 0 min 2 min 146 W/m 32,2 km/h (5 Bft) 100,00 %
14.03.2019 12:07 6,6 C 5,6 C 5,0 C 94 % 995,9 hPa 0,0 l/m 0 min 3 min 154 W/m 48,3 km/h (6 Bft) 100,00 %
14.03.2019 12:08 6,6 C 5,6 C 5,0 C 94 % 995,9 hPa 0,0 l/m 0 min 1 min 147 W/m 38,6 km/h (5 Bft) 100,00 %
14.03.2019 12:10 6,6 C 5,6 C 5,0 C 94 % 995,7 hPa 0,0 l/m 0 min 2 min 163 W/m 32,2 km/h (5 Bft) 100,00 %
14.03.2019 12:12 6,6 C 5,6 C 5,0 C 94 % 995,6 hPa 0,0 l/m 0 min 2 min 168 W/m 41,8 km/h (6 Bft) 100,00 %
14.03.2019 12:14 6,6 C 5,6 C 5,0 C 94 % 995,5 hPa 0,0 l/m 0 min 2 min 121 W/m 19,3 km/h (3 Bft) 100,00 %
14.03.2019 12:16 6,6 C 5,6 C 5,0 C 94 % 995,7 hPa 0,0 l/m 0 min 2 min 81 W/m 32,2 km/h (5 Bft) 100,00 %
14.03.2019 12:18 6,6 C 5,6 C 5,0 C 94 % 995,6 hPa 0,2 l/m 0 min 2 min 97 W/m 45,1 km/h (6 Bft) 100,00 %
14.03.2019 12:20 6,7 C 5,6 C 5,0 C 94 % 995,5 hPa 0,0 l/m 0 min 2 min 105 W/m 29,0 km/h (5 Bft) 100,00 %
14.03.2019 12:22 6,6 C 5,6 C 5,0 C 94 % 995,4 hPa 0,2 l/m 0 min 2 min 91 W/m 35,4 km/h (5 Bft) 100,00 %
14.03.2019 12:24 6,6 C 5,6 C 5,0 C 94 % 995,5 hPa 0,0 l/m 0 min 2 min 89 W/m 35,4 km/h (5 Bft) 100,00 %
14.03.2019 12:26 6,7 C 5,6 C 5,0 C 94 % 995,5 hPa 0,0 l/m 0 min 2 min 95 W/m 25,7 km/h (4 Bft) 97,87 %
14.03.2019 12:28 6,7 C 5,6 C 5,0 C 94 % 995,5 hPa 0,0 l/m 0 min 2 min 107 W/m 16,1 km/h (3 Bft) 97,87 %
14.03.2019 12:30 6,7 C 5,6 C 5,0 C 94 % 995,3 hPa 0,0 l/m 0 min 2 min 92 W/m 29,0 km/h (5 Bft) 97,87 %
14.03.2019 12:32 6,7 C 5,6 C 5,0 C 94 % 995,3 hPa 0,2 l/m 0 min 2 min 83 W/m 45,1 km/h (6 Bft) 93,62 %
14.03.2019 12:34 6,7 C 5,6 C 5,0 C 94 % 995,3 hPa 0,0 l/m 0 min 2 min 87 W/m 48,3 km/h (6 Bft) 97,83 %
14.03.2019 12:36 6,7 C 5,6 C 5,0 C 94 % 995,3 hPa 0,0 l/m 0 min 2 min 102 W/m 51,5 km/h (7 Bft) 98,31 %
14.03.2019 12:38 6,7 C 5,6 C 5,6 C 94 % 995,2 hPa 0,0 l/m 0 min 2 min 129 W/m 35,4 km/h (5 Bft) 97,22 %
14.03.2019 12:40 6,8 C 5,6 C 5,6 C 94 % 995,2 hPa 0,0 l/m 0 min 2 min 152 W/m 41,8 km/h (6 Bft) 97,87 %
14.03.2019 12:42 6,8 C 5,6 C 5,6 C 94 % 995,1 hPa 0,2 l/m 0 min 2 min 132 W/m 41,8 km/h (6 Bft) 95,74 %
14.03.2019 12:44 6,8 C 5,6 C 5,6 C 94 % 995,0 hPa 0,0 l/m 0 min 2 min 106 W/m 45,1 km/h (6 Bft) 95,65 %
14.03.2019 12:46 6,9 C 5,6 C 5,6 C 94 % 995,0 hPa 0,0 l/m 0 min 2 min 88 W/m 38,6 km/h (5 Bft) 95,74 %
14.03.2019 12:48 6,9 C 5,6 C 5,6 C 94 % 994,9 hPa 0,0 l/m 0 min 2 min 101 W/m 32,2 km/h (5 Bft) 97,87 %
14.03.2019 12:50 6,9 C 6,1 C 5,6 C 94 % 994,9 hPa 0,2 l/m 0 min 2 min 85 W/m 35,4 km/h (5 Bft) 93,62 %
14.03.2019 12:52 6,9 C 6,1 C 5,6 C 94 % 994,9 hPa 0,0 l/m 0 min 2 min 97 W/m 54,7 km/h (7 Bft) 95,74 %
14.03.2019 12:54 6,9 C 6,1 C 5,6 C 95 % 994,8 hPa 0,2 l/m 0 min 2 min 95 W/m 35,4 km/h (5 Bft) 95,74 %
14.03.2019 12:56 6,9 C 6,1 C 5,6 C 95 % 994,6 hPa 0,0 l/m 0 min 2 min 92 W/m 35,4 km/h (5 Bft) 97,83 %
14.03.2019 12:58 7,0 C 6,1 C 5,6 C 95 % 994,5 hPa 0,0 l/m 0 min 2 min 102 W/m 29,0 km/h (5 Bft) 97,87 %
14.03.2019 13:00 7,0 C 6,1 C 5,6 C 95 % 994,4 hPa 0,2 l/m 0 min 2 min 107 W/m 41,8 km/h (6 Bft) 97,87 %
14.03.2019 13:02 7,0 C 6,1 C 5,6 C 95 % 994,5 hPa 0,0 l/m 0 min 2 min 97 W/m 45,1 km/h (6 Bft) 93,62 %
14.03.2019 13:04 7,0 C 6,1 C 5,6 C 95 % 994,4 hPa 0,2 l/m 0 min 2 min 97 W/m 51,5 km/h (7 Bft) 95,74 %
14.03.2019 13:06 7,1 C 6,1 C 5,6 C 95 % 994,4 hPa 0,0 l/m 0 min 2 min 106 W/m 35,4 km/h (5 Bft) 95,74 %
14.03.2019 13:08 7,1 C 6,1 C 5,6 C 95 % 994,3 hPa 0,0 l/m 0 min 2 min 133 W/m 22,5 km/h (4 Bft) 95,65 %
14.03.2019 13:10 7,1 C 6,1 C 5,6 C 95 % 994,2 hPa 0,0 l/m 0 min 2 min 116 W/m 35,4 km/h (5 Bft) 97,87 %
14.03.2019 13:12 7,1 C 6,1 C 5,6 C 95 % 994,2 hPa 0,0 l/m 0 min 2 min 104 W/m 35,4 km/h (5 Bft) 97,87 %
14.03.2019 13:14 7,2 C 6,1 C 6,1 C 95 % 994,3 hPa 0,0 l/m 0 min 2 min 111 W/m 25,7 km/h (4 Bft) 97,87 %
14.03.2019 13:16 7,2 C 6,1 C 6,1 C 95 % 994,2 hPa 0,0 l/m 0 min 2 min 92 W/m 19,3 km/h (3 Bft) 93,62 %
14.03.2019 13:18 7,2 C 6,1 C 5,6 C 95 % 994,2 hPa 0,0 l/m 0 min 2 min 78 W/m 25,7 km/h (4 Bft) 97,87 %
14.03.2019 13:20 7,2 C 6,1 C 6,1 C 95 % 994,2 hPa 0,0 l/m 0 min 2 min 71 W/m 19,3 km/h (3 Bft) 97,83 %
14.03.2019 13:22 7,2 C 6,1 C 6,1 C 95 % 994,3 hPa 0,2 l/m 0 min 2 min 65 W/m 22,5 km/h (4 Bft) 97,87 %
14.03.2019 13:24 7,3 C 6,7 C 6,1 C 95 % 994,2 hPa 0,0 l/m 0 min 2 min 77 W/m 22,5 km/h (4 Bft) 97,87 %
14.03.2019 13:26 7,3 C 6,7 C 6,1 C 96 % 994,1 hPa 0,0 l/m 0 min 2 min 108 W/m 16,1 km/h (3 Bft) 97,87 %
14.03.2019 13:28 7,3 C 6,7 C 6,1 C 96 % 994,1 hPa 0,0 l/m 0 min 2 min 98 W/m 22,5 km/h (4 Bft) 95,74 %
14.03.2019 13:30 7,3 C 6,7 C 6,1 C 96 % 994,1 hPa 0,0 l/m 0 min 2 min 73 W/m 32,2 km/h (5 Bft) 95,74 %
14.03.2019 13:32 7,4 C 6,7 C 6,1 C 96 % 994,1 hPa 0,0 l/m 0 min 2 min 61 W/m 32,2 km/h (5 Bft) 97,83 %
14.03.2019 13:34 7,4 C 6,7 C 6,1 C 96 % 994,0 hPa 0,0 l/m 0 min 2 min 60 W/m 22,5 km/h (4 Bft) 97,87 %
14.03.2019 13:36 7,4 C 6,7 C 6,1 C 96 % 994,0 hPa 0,0 l/m 0 min 2 min 81 W/m 22,5 km/h (4 Bft) 97,87 %
14.03.2019 13:38 7,4 C 6,7 C 6,1 C 96 % 994,1 hPa 0,0 l/m 0 min 2 min 102 W/m 29,0 km/h (5 Bft) 97,87 %
14.03.2019 13:40 7,5 C 6,7 C 6,1 C 96 % 993,9 hPa 0,0 l/m 0 min 2 min 95 W/m 25,7 km/h (4 Bft) 97,87 %
14.03.2019 13:42 7,5 C 6,7 C 6,1 C 96 % 994,0 hPa 0,0 l/m 0 min 2 min 82 W/m 12,9 km/h (3 Bft) 97,87 %
14.03.2019 13:44 7,6 C 6,7 C 6,7 C 96 % 993,9 hPa 0,0 l/m 0 min 2 min 99 W/m 22,5 km/h (4 Bft) 97,83 %
14.03.2019 13:46 7,6 C 6,7 C 6,7 C 96 % 993,8 hPa 0,0 l/m 0 min 2 min 85 W/m 19,3 km/h (3 Bft) 95,74 %
14.03.2019 13:48 7,6 C 6,7 C 6,7 C 96 % 993,9 hPa 0,0 l/m 0 min 2 min 71 W/m 19,3 km/h (3 Bft) 91,49 %
14.03.2019 13:50 7,7 C 6,7 C 6,7 C 96 % 993,8 hPa 0,0 l/m 0 min 2 min 61 W/m 16,1 km/h (3 Bft) 95,74 %
14.03.2019 13:52 7,7 C 7,2 C 6,7 C 96 % 993,8 hPa 0,0 l/m 0 min 2 min 64 W/m 35,4 km/h (5 Bft) 93,62 %
14.03.2019 13:54 7,7 C 7,2 C 6,7 C 96 % 993,8 hPa 0,0 l/m 0 min 2 min 69 W/m 16,1 km/h (3 Bft) 95,74 %
14.03.2019 13:56 7,8 C 7,2 C 6,7 C 96 % 993,7 hPa 0,0 l/m 0 min 2 min 71 W/m 29,0 km/h (5 Bft) 95,65 %
14.03.2019 13:58 7,8 C 7,2 C 6,7 C 96 % 993,7 hPa 0,0 l/m 0 min 2 min 73 W/m 19,3 km/h (3 Bft) 97,87 %
14.03.2019 14:00 7,8 C 7,2 C 6,7 C 96 % 993,6 hPa 0,0 l/m 0 min 2 min 97 W/m 32,2 km/h (5 Bft) 95,74 %
14.03.2019 14:02 7,9 C 7,2 C 6,7 C 96 % 993,7 hPa 0,0 l/m 0 min 2 min 80 W/m 25,7 km/h (4 Bft) 95,74 %
14.03.2019 14:04 7,9 C 7,2 C 6,7 C 96 % 993,7 hPa 0,0 l/m 0 min 2 min 73 W/m 12,9 km/h (3 Bft) 97,87 %
14.03.2019 14:06 8,0 C 7,2 C 6,7 C 97 % 993,5 hPa 0,0 l/m 0 min 2 min 82 W/m 19,3 km/h (3 Bft) 100,00 %
14.03.2019 14:08 8,0 C 7,2 C 6,7 C 96 % 993,6 hPa 0,0 l/m 0 min 2 min 83 W/m 16,1 km/h (3 Bft) 97,83 %
14.03.2019 14:10 8,1 C 7,8 C 7,2 C 96 % 993,4 hPa 0,0 l/m 0 min 2 min 118 W/m 12,9 km/h (3 Bft) 95,74 %
14.03.2019 14:12 8,1 C 7,8 C 7,2 C 96 % 993,4 hPa 0,0 l/m 0 min 2 min 127 W/m 19,3 km/h (3 Bft) 97,87 %
14.03.2019 14:14 8,2 C 7,8 C 7,2 C 97 % 993,5 hPa 0,0 l/m 0 min 2 min 93 W/m 29,0 km/h (5 Bft) 97,87 %
14.03.2019 14:16 8,2 C 7,8 C 7,2 C 97 % 993,5 hPa 0,0 l/m 0 min 2 min 83 W/m 16,1 km/h (3 Bft) 97,87 %
14.03.2019 14:18 8,3 C 7,8 C 7,2 C 97 % 993,5 hPa 0,0 l/m 0 min 2 min 80 W/m 35,4 km/h (5 Bft) 97,83 %
14.03.2019 14:20 8,3 C 7,8 C 7,2 C 97 % 993,5 hPa 0,0 l/m 0 min 2 min 82 W/m 19,3 km/h (3 Bft) 97,87 %
14.03.2019 14:22 8,3 C 7,8 C 7,2 C 97 % 993,6 hPa 0,0 l/m 0 min 2 min 83 W/m 25,7 km/h (4 Bft) 97,87 %
14.03.2019 14:24 8,4 C 7,8 C 7,2 C 97 % 993,6 hPa 0,0 l/m 0 min 2 min 70 W/m 25,7 km/h (4 Bft) 97,87 %
14.03.2019 14:26 8,4 C 7,8 C 7,2 C 97 % 993,5 hPa 0,0 l/m 0 min 2 min 85 W/m 25,7 km/h (4 Bft) 95,74 %
14.03.2019 14:28 8,4 C 7,8 C 7,2 C 97 % 993,5 hPa 0,0 l/m 0 min 2 min 54 W/m 19,3 km/h (3 Bft) 97,87 %
14.03.2019 14:30 8,5 C 7,8 C 7,2 C 97 % 993,2 hPa 0,0 l/m 0 min 2 min 63 W/m 25,7 km/h (4 Bft) 97,83 %
14.03.2019 14:32 8,5 C 7,8 C 7,2 C 97 % 993,2 hPa 0,0 l/m 0 min 2 min 91 W/m 25,7 km/h (4 Bft) 95,74 %
14.03.2019 14:34 8,6 C 7,8 C 7,2 C 97 % 993,4 hPa 0,0 l/m 0 min 2 min 134 W/m 19,3 km/h (3 Bft) 97,87 %
14.03.2019 14:36 8,6 C 8,3 C 7,8 C 97 % 993,3 hPa 0,0 l/m 0 min 2 min 199 W/m 25,7 km/h (4 Bft) 97,87 %
14.03.2019 14:38 8,7 C 8,3 C 7,8 C 97 % 993,5 hPa 0,2 l/m 0 min 2 min 195 W/m 35,4 km/h (5 Bft) 100,00 %
14.03.2019 14:40 8,7 C 8,3 C 7,8 C 97 % 993,3 hPa 0,0 l/m 0 min 2 min 202 W/m 29,0 km/h (5 Bft) 97,87 %
14.03.2019 14:42 8,8 C 8,3 C 7,8 C 97 % 993,5 hPa 0,0 l/m 0 min 2 min 193 W/m 29,0 km/h (5 Bft) 100,00 %
14.03.2019 14:44 8,8 C 8,3 C 7,8 C 97 % 993,3 hPa 0,0 l/m 0 min 0 min 143 W/m 25,7 km/h (4 Bft) 100,00 %
14.03.2019 14:46 8,9 C 8,3 C 7,8 C 97 % 993,3 hPa 0,0 l/m 0 min 0 min 131 W/m 22,5 km/h (4 Bft) 100,00 %
14.03.2019 14:48 8,9 C 8,3 C 7,8 C 97 % 993,4 hPa 0,0 l/m 0 min 0 min 105 W/m 35,4 km/h (5 Bft) 100,00 %
14.03.2019 14:50 8,9 C 8,3 C 7,8 C 97 % 993,4 hPa 0,0 l/m 0 min 0 min 139 W/m 19,3 km/h (3 Bft) 97,87 %
14.03.2019 14:52 9,0 C 8,3 C 7,8 C 97 % 993,7 hPa 0,0 l/m 0 min 0 min 131 W/m 22,5 km/h (4 Bft) 95,74 %
14.03.2019 14:54 9,1 C 8,9 C 7,8 C 97 % 993,6 hPa 0,0 l/m 0 min 0 min 132 W/m 32,2 km/h (5 Bft) 97,83 %
14.03.2019 14:56 9,1 C 8,9 C 7,8 C 97 % 993,8 hPa 0,0 l/m 0 min 0 min 120 W/m 22,5 km/h (4 Bft) 97,87 %
14.03.2019 14:58 9,1 C 8,9 C 7,8 C 97 % 993,7 hPa 0,0 l/m 0 min 0 min 148 W/m 32,2 km/h (5 Bft) 97,87 %
14.03.2019 15:00 9,2 C 9,4 C 8,3 C 96 % 993,7 hPa 0,0 l/m 0 min 0 min 206 W/m 29,0 km/h (5 Bft) 97,87 %
14.03.2019 15:02 9,2 C 9,4 C 8,3 C 96 % 993,7 hPa 0,0 l/m 0 min 0 min 204 W/m 25,7 km/h (4 Bft) 97,87 %
14.03.2019 15:04 9,3 C 9,4 C 8,3 C 96 % 993,8 hPa 0,0 l/m 0 min 0 min 160 W/m 35,4 km/h (5 Bft) 97,87 %
14.03.2019 15:06 9,3 C 8,9 C 8,3 C 96 % 993,9 hPa 0,0 l/m 0 min 2 min 159 W/m 22,5 km/h (4 Bft) 97,83 %
14.03.2019 15:08 9,4 C 8,9 C 8,3 C 96 % 993,7 hPa 0,0 l/m 0 min 2 min 133 W/m 19,3 km/h (3 Bft) 95,83 %
14.03.2019 15:10 9,4 C 8,9 C 8,3 C 96 % 993,9 hPa 0,0 l/m 0 min 2 min 135 W/m 29,0 km/h (5 Bft) 97,87 %
14.03.2019 15:12 9,4 C 8,9 C 8,3 C 96 % 993,9 hPa 0,0 l/m 0 min 2 min 190 W/m 22,5 km/h (4 Bft) 95,74 %
14.03.2019 15:14 9,5 C 9,4 C 8,3 C 96 % 993,9 hPa 0,0 l/m 0 min 2 min 198 W/m 16,1 km/h (3 Bft) 97,87 %
14.03.2019 15:16 9,6 C 10,6 C 8,3 C 96 % 993,9 hPa 0,0 l/m 2 min 2 min 309 W/m 29,0 km/h (5 Bft) 97,87 %
14.03.2019 15:18 9,7 C 10,0 C 8,3 C 96 % 994,0 hPa 0,0 l/m 2 min 2 min 477 W/m 22,5 km/h (4 Bft) 97,83 %
14.03.2019 15:20 9,8 C 11,7 C 8,9 C 96 % 993,9 hPa 0,0 l/m 2 min 2 min 346 W/m 35,4 km/h (5 Bft) 97,87 %
14.03.2019 15:22 9,9 C 11,7 C 8,9 C 96 % 993,9 hPa 0,0 l/m 2 min 2 min 346 W/m 16,1 km/h (3 Bft) 97,87 %
14.03.2019 15:24 10,0 C 12,2 C 9,4 C 96 % 994,0 hPa 0,0 l/m 2 min 2 min 468 W/m 29,0 km/h (5 Bft) 97,87 %
14.03.2019 15:26 10,1 C 12,8 C 9,4 C 96 % 993,9 hPa 0,0 l/m 2 min 0 min 606 W/m 16,1 km/h (3 Bft) 93,62 %
14.03.2019 15:28 10,3 C 13,3 C 9,4 C 96 % 993,8 hPa 0,0 l/m 2 min 0 min 600 W/m 25,7 km/h (4 Bft) 100,00 %
14.03.2019 15:30 10,3 C 12,8 C 9,4 C 95 % 993,9 hPa 0,0 l/m 2 min 0 min 538 W/m 32,2 km/h (5 Bft) 97,83 %
14.03.2019 15:32 10,4 C 11,7 C 8,9 C 95 % 993,9 hPa 0,0 l/m 2 min 0 min 268 W/m 29,0 km/h (5 Bft) 100,00 %
14.03.2019 15:34 10,4 C 11,1 C 8,9 C 95 % 993,9 hPa 0,0 l/m 0 min 2 min 136 W/m 35,4 km/h (5 Bft) 100,00 %
14.03.2019 15:36 10,4 C 10,6 C 8,9 C 94 % 994,0 hPa 0,0 l/m 0 min 2 min 131 W/m 22,5 km/h (4 Bft) 100,00 %
14.03.2019 15:38 10,4 C 10,6 C 8,9 C 94 % 994,0 hPa 0,0 l/m 0 min 0 min 104 W/m 22,5 km/h (4 Bft) 100,00 %
14.03.2019 15:40 10,4 C 10,0 C 8,3 C 93 % 994,0 hPa 0,0 l/m 0 min 2 min 87 W/m 29,0 km/h (5 Bft) 97,87 %
14.03.2019 15:42 10,4 C 10,0 C 8,3 C 93 % 994,2 hPa 0,0 l/m 0 min 2 min 67 W/m 25,7 km/h (4 Bft) 100,00 %
14.03.2019 15:44 10,3 C 9,4 C 7,8 C 93 % 994,2 hPa 0,0 l/m 0 min 2 min 38 W/m 29,0 km/h (5 Bft) 100,00 %
14.03.2019 15:46 10,3 C 9,4 C 7,8 C 92 % 994,3 hPa 0,0 l/m 0 min 2 min 31 W/m 22,5 km/h (4 Bft) 100,00 %
14.03.2019 15:48 10,2 C 9,4 C 7,8 C 92 % 994,2 hPa 0,0 l/m 0 min 2 min 40 W/m 29,0 km/h (5 Bft) 91,49 %
14.03.2019 15:50 10,1 C 9,4 C 7,8 C 91 % 994,4 hPa 0,0 l/m 0 min 2 min 34 W/m 29,0 km/h (5 Bft) 91,49 %
14.03.2019 15:52 10,0 C 8,9 C 7,2 C 91 % 994,3 hPa 0,0 l/m 0 min 2 min 49 W/m 25,7 km/h (4 Bft) 100,00 %
14.03.2019 15:54 9,9 C 8,9 C 7,2 C 90 % 994,3 hPa 0,0 l/m 0 min 2 min 50 W/m 29,0 km/h (5 Bft) 100,00 %
14.03.2019 15:56 9,8 C 8,9 C 7,2 C 90 % 994,3 hPa 0,0 l/m 0 min 2 min 51 W/m 22,5 km/h (4 Bft) 97,87 %
14.03.2019 15:58 9,8 C 8,9 C 7,2 C 90 % 994,4 hPa 0,0 l/m 0 min 2 min 45 W/m 22,5 km/h (4 Bft) 100,00 %
14.03.2019 16:00 9,7 C 8,3 C 7,2 C 90 % 994,4 hPa 0,0 l/m 0 min 2 min 73 W/m 35,4 km/h (5 Bft) 100,00 %
14.03.2019 16:02 9,6 C 8,9 C 7,2 C 90 % 994,5 hPa 0,0 l/m 0 min 2 min 130 W/m 35,4 km/h (5 Bft) 100,00 %
14.03.2019 16:04 9,6 C 8,9 C 7,2 C 90 % 994,6 hPa 0,0 l/m 0 min 2 min 142 W/m 22,5 km/h (4 Bft) 100,00 %
14.03.2019 16:06 9,6 C 8,9 C 7,2 C 89 % 994,6 hPa 0,0 l/m 0 min 2 min 154 W/m 35,4 km/h (5 Bft) 97,87 %
14.03.2019 16:08 9,5 C 8,9 C 7,2 C 89 % 994,7 hPa 0,0 l/m 0 min 2 min 56 W/m 35,4 km/h (5 Bft) 97,87 %
14.03.2019 16:10 9,5 C 8,9 C 7,2 C 88 % 994,8 hPa 0,0 l/m 0 min 2 min 43 W/m 29,0 km/h (5 Bft) 100,00 %
14.03.2019 16:12 9,4 C 8,3 C 7,2 C 88 % 994,9 hPa 0,0 l/m 0 min 2 min 25 W/m 38,6 km/h (5 Bft) 95,74 %
14.03.2019 16:14 9,4 C 7,8 C 6,7 C 88 % 994,9 hPa 0,0 l/m 0 min 2 min 18 W/m 29,0 km/h (5 Bft) 95,74 %
14.03.2019 16:16 9,3 C 7,2 C 6,7 C 88 % 994,8 hPa 0,2 l/m 0 min 2 min 19 W/m 35,4 km/h (5 Bft) 97,87 %
14.03.2019 16:18 9,2 C 7,2 C 6,7 C 88 % 994,9 hPa 0,0 l/m 0 min 2 min 31 W/m 22,5 km/h (4 Bft) 97,83 %
14.03.2019 16:20 9,1 C 7,2 C 6,7 C 89 % 994,9 hPa 0,0 l/m 0 min 2 min 74 W/m 35,4 km/h (5 Bft) 95,74 %
14.03.2019 16:22 8,9 C 7,2 C 6,7 C 89 % 994,9 hPa 0,2 l/m 0 min 2 min 92 W/m 38,6 km/h (5 Bft) 100,00 %
14.03.2019 16:24 8,8 C 6,7 C 6,7 C 89 % 995,0 hPa 0,0 l/m 0 min 2 min 56 W/m 45,1 km/h (6 Bft) 95,74 %
14.03.2019 16:26 8,7 C 7,2 C 6,7 C 90 % 995,2 hPa 0,0 l/m 0 min 2 min 41 W/m 35,4 km/h (5 Bft) 91,49 %
14.03.2019 16:28 8,7 C 6,7 C 6,7 C 90 % 995,2 hPa 0,2 l/m 0 min 2 min 31 W/m 32,2 km/h (5 Bft) 95,74 %
14.03.2019 16:30 8,6 C 6,7 C 6,7 C 90 % 995,4 hPa 0,4 l/m 0 min 2 min 25 W/m 25,7 km/h (4 Bft) 93,48 %
14.03.2019 16:32 8,5 C 6,7 C 6,1 C 91 % 995,3 hPa 0,2 l/m 0 min 2 min 24 W/m 29,0 km/h (5 Bft) 95,74 %
14.03.2019 16:34 8,4 C 6,7 C 6,1 C 91 % 995,4 hPa 0,4 l/m 0 min 2 min 25 W/m 38,6 km/h (5 Bft) 97,87 %
14.03.2019 16:36 8,2 C 6,1 C 5,6 C 91 % 995,4 hPa 0,4 l/m 0 min 2 min 21 W/m 41,8 km/h (6 Bft) 97,87 %
14.03.2019 16:38 8,1 C 6,1 C 5,6 C 91 % 995,4 hPa 0,2 l/m 0 min 2 min 24 W/m 38,6 km/h (5 Bft) 97,87 %
14.03.2019 16:40 8,0 C 6,1 C 6,1 C 91 % 995,5 hPa 0,2 l/m 0 min 2 min 28 W/m 29,0 km/h (5 Bft) 95,74 %
14.03.2019 16:42 7,9 C 6,7 C 6,1 C 92 % 995,5 hPa 0,2 l/m 0 min 2 min 71 W/m 35,4 km/h (5 Bft) 95,65 %
14.03.2019 16:44 7,9 C 6,7 C 6,1 C 92 % 995,5 hPa 0,0 l/m 0 min 2 min 78 W/m 35,4 km/h (5 Bft) 95,74 %
14.03.2019 16:46 7,8 C 6,7 C 6,1 C 92 % 995,4 hPa 0,0 l/m 0 min 0 min 38 W/m 32,2 km/h (5 Bft) 95,74 %
14.03.2019 16:48 7,8 C 6,7 C 6,1 C 93 % 995,4 hPa 0,0 l/m 0 min 2 min 30 W/m 22,5 km/h (4 Bft) 93,62 %
14.03.2019 16:50 7,8 C 6,7 C 6,1 C 93 % 995,5 hPa 0,0 l/m 0 min 2 min 22 W/m 38,6 km/h (5 Bft) 95,74 %
14.03.2019 16:52 7,8 C 6,7 C 6,1 C 93 % 995,6 hPa 0,2 l/m 0 min 2 min 17 W/m 32,2 km/h (5 Bft) 95,74 %
14.03.2019 16:54 7,8 C 6,7 C 6,1 C 93 % 995,5 hPa 0,0 l/m 0 min 2 min 17 W/m 32,2 km/h (5 Bft) 95,65 %
14.03.2019 16:56 7,8 C 6,7 C 6,1 C 93 % 995,6 hPa 0,0 l/m 0 min 2 min 19 W/m 25,7 km/h (4 Bft) 95,74 %
14.03.2019 16:58 7,8 C 6,7 C 6,1 C 93 % 995,6 hPa 0,0 l/m 0 min 2 min 15 W/m 25,7 km/h (4 Bft) 95,74 %
14.03.2019 17:00 7,8 C 6,7 C 6,1 C 93 % 995,7 hPa 0,0 l/m 0 min 2 min 12 W/m 29,0 km/h (5 Bft) 93,62 %
14.03.2019 17:02 7,8 C 6,7 C 6,1 C 94 % 995,8 hPa 0,0 l/m 0 min 2 min 11 W/m 51,5 km/h (7 Bft) 95,74 %
14.03.2019 17:04 7,8 C 6,7 C 6,1 C 94 % 995,8 hPa 0,0 l/m 0 min 2 min 11 W/m 38,6 km/h (5 Bft) 93,48 %
14.03.2019 17:06 7,7 C 6,1 C 5,6 C 93 % 995,8 hPa 0,0 l/m 0 min 2 min 11 W/m 38,6 km/h (5 Bft) 95,74 %
14.03.2019 17:08 7,7 C 6,1 C 5,6 C 93 % 995,7 hPa 0,0 l/m 0 min 2 min 11 W/m 35,4 km/h (5 Bft) 95,74 %
14.03.2019 17:10 7,6 C 6,1 C 5,6 C 93 % 995,7 hPa 0,0 l/m 0 min 2 min 14 W/m 38,6 km/h (5 Bft) 95,74 %
14.03.2019 17:12 7,6 C 6,1 C 5,6 C 93 % 995,8 hPa 0,0 l/m 0 min 2 min 16 W/m 22,5 km/h (4 Bft) 97,87 %
14.03.2019 17:14 7,6 C 6,1 C 5,6 C 93 % 995,7 hPa 0,0 l/m 0 min 2 min 16 W/m 22,5 km/h (4 Bft) 95,74 %
14.03.2019 17:16 7,6 C 6,1 C 5,6 C 93 % 995,9 hPa 0,2 l/m 0 min 2 min 20 W/m 25,7 km/h (4 Bft) 93,48 %
14.03.2019 17:18 7,5 C 6,1 C 5,6 C 93 % 996,1 hPa 0,0 l/m 0 min 2 min 26 W/m 22,5 km/h (4 Bft) 93,62 %
14.03.2019 17:20 7,5 C 6,1 C 6,1 C 93 % 996,1 hPa 0,0 l/m 0 min 2 min 36 W/m 22,5 km/h (4 Bft) 89,36 %
14.03.2019 17:22 7,5 C 6,1 C 6,1 C 93 % 996,0 hPa 0,0 l/m 0 min 2 min 53 W/m 22,5 km/h (4 Bft) 95,74 %
14.03.2019 17:24 7,5 C 6,7 C 6,1 C 93 % 996,1 hPa 0,0 l/m 0 min 2 min 54 W/m 22,5 km/h (4 Bft) 95,74 %
14.03.2019 17:26 7,5 C 6,1 C 6,1 C 93 % 996,1 hPa 0,0 l/m 0 min 2 min 33 W/m 16,1 km/h (3 Bft) 91,49 %
14.03.2019 17:28 7,5 C 6,1 C 5,6 C 93 % 996,2 hPa 0,0 l/m 0 min 2 min 25 W/m 19,3 km/h (3 Bft) 95,65 %
14.03.2019 17:30 7,5 C 6,1 C 5,6 C 94 % 996,2 hPa 0,0 l/m 0 min 2 min 26 W/m 25,7 km/h (4 Bft) 95,74 %
14.03.2019 17:32 7,4 C 6,1 C 6,1 C 94 % 996,2 hPa 0,0 l/m 0 min 2 min 33 W/m 25,7 km/h (4 Bft) 95,74 %
14.03.2019 17:34 7,5 C 6,7 C 6,1 C 94 % 996,4 hPa 0,0 l/m 0 min 2 min 35 W/m 19,3 km/h (3 Bft) 95,74 %
14.03.2019 17:36 7,5 C 6,7 C 6,1 C 94 % 996,3 hPa 0,0 l/m 0 min 2 min 32 W/m 22,5 km/h (4 Bft) 93,62 %
14.03.2019 17:38 7,5 C 6,7 C 6,1 C 94 % 996,4 hPa 0,0 l/m 0 min 0 min 32 W/m 19,3 km/h (3 Bft) 97,87 %
14.03.2019 17:40 7,6 C 6,7 C 6,1 C 94 % 996,3 hPa 0,0 l/m 0 min 0 min 30 W/m 35,4 km/h (5 Bft) 97,83 %
14.03.2019 17:42 7,6 C 6,7 C 6,1 C 94 % 996,4 hPa 0,0 l/m 0 min 0 min 29 W/m 25,7 km/h (4 Bft) 97,87 %
14.03.2019 17:44 7,6 C 6,7 C 6,1 C 94 % 996,5 hPa 0,0 l/m 0 min 0 min 38 W/m 12,9 km/h (3 Bft) 95,74 %
14.03.2019 17:46 7,6 C 6,7 C 6,1 C 94 % 996,6 hPa 0,0 l/m 0 min 0 min 33 W/m 19,3 km/h (3 Bft) 93,62 %
14.03.2019 17:48 7,6 C 6,7 C 6,1 C 94 % 996,6 hPa 0,0 l/m 0 min 0 min 31 W/m 12,9 km/h (3 Bft) 97,87 %
14.03.2019 17:50 7,7 C 6,7 C 6,1 C 94 % 996,6 hPa 0,0 l/m 0 min 0 min 33 W/m 6,4 km/h (2 Bft) 97,87 %
14.03.2019 17:52 7,7 C 6,7 C 6,1 C 94 % 996,7 hPa 0,0 l/m 0 min 0 min 39 W/m 19,3 km/h (3 Bft) 97,83 %
14.03.2019 17:54 7,7 C 6,7 C 6,1 C 94 % 996,7 hPa 0,0 l/m 0 min 0 min 37 W/m 22,5 km/h (4 Bft) 91,49 %
14.03.2019 17:56 7,7 C 6,7 C 6,1 C 94 % 996,8 hPa 0,0 l/m 0 min 0 min 38 W/m 12,9 km/h (3 Bft) 97,87 %
14.03.2019 17:58 7,7 C 6,7 C 6,1 C 94 % 996,9 hPa 0,0 l/m 0 min 0 min 28 W/m 9,7 km/h (2 Bft) 100,00 %
14.03.2019 18:00 7,7 C 6,7 C 6,1 C 94 % 996,9 hPa 0,0 l/m 0 min 0 min 26 W/m 22,5 km/h (4 Bft) 100,00 %
14.03.2019 18:02 7,7 C 6,7 C 6,1 C 94 % 997,0 hPa 0,0 l/m 0 min 0 min 19 W/m 19,3 km/h (3 Bft) 97,87 %
14.03.2019 18:04 7,7 C 6,7 C 6,1 C 94 % 997,0 hPa 0,0 l/m 0 min 0 min 20 W/m 22,5 km/h (4 Bft) 100,00 %
14.03.2019 18:07 7,7 C 6,7 C 6,1 C 94 % 997,2 hPa 0,0 l/m 0 min 0 min 15 W/m 25,7 km/h (4 Bft) 98,59 %
14.03.2019 18:08 7,7 C 6,7 C 6,1 C 93 % 997,2 hPa 0,0 l/m 0 min 0 min 16 W/m 19,3 km/h (3 Bft) 100,00 %
14.03.2019 18:10 7,8 C 6,7 C 6,1 C 93 % 997,3 hPa 0,0 l/m 0 min 0 min 16 W/m 19,3 km/h (3 Bft) 97,87 %
14.03.2019 18:12 7,8 C 6,7 C 6,1 C 93 % 997,4 hPa 0,0 l/m 0 min 0 min 12 W/m 25,7 km/h (4 Bft) 97,87 %
14.03.2019 18:14 7,8 C 6,7 C 6,1 C 93 % 997,5 hPa 0,0 l/m 0 min 0 min 10 W/m 35,4 km/h (5 Bft) 100,00 %
14.03.2019 18:16 7,8 C 7,2 C 6,1 C 93 % 997,5 hPa 0,0 l/m 0 min 0 min 7 W/m 25,7 km/h (4 Bft) 100,00 %
14.03.2019 18:18 7,8 C 7,2 C 6,1 C 93 % 997,7 hPa 0,0 l/m 0 min 0 min 3 W/m 22,5 km/h (4 Bft) 100,00 %
14.03.2019 18:20 7,9 C 7,2 C 6,1 C 93 % 997,8 hPa 0,0 l/m 0 min 0 min 0 W/m 32,2 km/h (5 Bft) 100,00 %
14.03.2019 18:22 7,9 C 7,2 C 6,1 C 93 % 998,0 hPa 0,0 l/m 0 min 0 min 0 W/m 16,1 km/h (3 Bft) 100,00 %
14.03.2019 18:24 7,9 C 7,2 C 6,1 C 92 % 998,0 hPa 0,0 l/m 0 min 0 min 0 W/m 16,1 km/h (3 Bft) 100,00 %
14.03.2019 18:26 7,9 C 7,2 C 6,1 C 92 % 998,0 hPa 0,0 l/m 0 min 0 min 0 W/m 16,1 km/h (3 Bft) 100,00 %
14.03.2019 18:28 7,9 C 7,2 C 6,1 C 92 % 998,1 hPa 0,0 l/m 0 min 0 min 0 W/m 16,1 km/h (3 Bft) 100,00 %
14.03.2019 18:30 7,9 C 7,2 C 6,1 C 92 % 998,3 hPa 0,0 l/m 0 min 0 min 0 W/m 12,9 km/h (3 Bft) 100,00 %
14.03.2019 18:32 7,9 C 7,2 C 6,1 C 92 % 998,5 hPa 0,0 l/m 0 min 2 min 0 W/m 54,7 km/h (7 Bft) 97,87 %
14.03.2019 18:34 7,9 C 7,2 C 5,6 C 92 % 998,6 hPa 0,0 l/m 0 min 2 min 0 W/m 57,9 km/h (7 Bft) 100,00 %
14.03.2019 18:36 7,8 C 6,7 C 5,6 C 91 % 999,1 hPa 0,2 l/m 0 min 2 min 0 W/m 54,7 km/h (7 Bft) 100,00 %
14.03.2019 18:38 7,7 C 6,1 C 5,6 C 91 % 998,8 hPa 0,0 l/m 0 min 2 min 0 W/m 41,8 km/h (6 Bft) 100,00 %
14.03.2019 18:40 7,6 C 6,1 C 5,0 C 91 % 998,9 hPa 0,2 l/m 0 min 2 min 0 W/m 35,4 km/h (5 Bft) 100,00 %
14.03.2019 18:42 7,5 C 6,1 C 5,0 C 91 % 999,1 hPa 0,2 l/m 0 min 2 min 0 W/m 51,5 km/h (7 Bft) 100,00 %
14.03.2019 18:44 7,4 C 5,6 C 5,0 C 91 % 999,2 hPa 0,0 l/m 0 min 2 min 0 W/m 29,0 km/h (5 Bft) 97,87 %
14.03.2019 18:46 7,3 C 5,6 C 5,0 C 91 % 999,1 hPa 0,2 l/m 0 min 2 min 0 W/m 35,4 km/h (5 Bft) 97,87 %
14.03.2019 18:48 7,2 C 5,6 C 5,0 C 92 % 999,1 hPa 0,0 l/m 0 min 2 min 0 W/m 22,5 km/h (4 Bft) 100,00 %
14.03.2019 18:50 7,1 C 5,6 C 5,0 C 92 % 999,1 hPa 0,0 l/m 0 min 2 min 0 W/m 22,5 km/h (4 Bft) 100,00 %
14.03.2019 18:52 7,1 C 5,6 C 5,0 C 92 % 999,1 hPa 0,0 l/m 0 min 2 min 0 W/m 25,7 km/h (4 Bft) 97,87 %
14.03.2019 18:54 7,0 C 5,6 C 5,0 C 92 % 999,2 hPa 0,0 l/m 0 min 0 min 0 W/m 29,0 km/h (5 Bft) 100,00 %
14.03.2019 18:56 6,9 C 5,6 C 5,0 C 92 % 999,2 hPa 0,0 l/m 0 min 0 min 0 W/m 22,5 km/h (4 Bft) 100,00 %
14.03.2019 18:58 6,9 C 5,6 C 5,0 C 92 % 999,3 hPa 0,0 l/m 0 min 0 min 0 W/m 29,0 km/h (5 Bft) 100,00 %
14.03.2019 19:00 6,8 C 5,6 C 5,0 C 93 % 999,3 hPa 0,0 l/m 0 min 0 min 0 W/m 29,0 km/h (5 Bft) 100,00 %
14.03.2019 19:02 6,8 C 5,6 C 5,0 C 93 % 999,3 hPa 0,0 l/m 0 min 0 min 0 W/m 25,7 km/h (4 Bft) 97,87 %
14.03.2019 19:04 6,8 C 5,6 C 5,0 C 93 % 999,3 hPa 0,0 l/m 0 min 0 min 0 W/m 32,2 km/h (5 Bft) 100,00 %
14.03.2019 19:06 6,7 C 5,6 C 5,0 C 93 % 999,5 hPa 0,0 l/m 0 min 0 min 0 W/m 25,7 km/h (4 Bft) 100,00 %
14.03.2019 19:08 6,7 C 5,6 C 5,0 C 93 % 999,5 hPa 0,0 l/m 0 min 2 min 0 W/m 22,5 km/h (4 Bft) 100,00 %
14.03.2019 19:10 6,7 C 5,6 C 5,0 C 93 % 999,5 hPa 0,0 l/m 0 min 2 min 0 W/m 38,6 km/h (5 Bft) 97,87 %
14.03.2019 19:12 6,7 C 5,6 C 5,0 C 93 % 999,6 hPa 0,0 l/m 0 min 2 min 0 W/m 35,4 km/h (5 Bft) 95,65 %
14.03.2019 19:14 6,7 C 5,6 C 5,0 C 93 % 999,5 hPa 0,0 l/m 0 min 2 min 0 W/m 41,8 km/h (6 Bft) 97,87 %
14.03.2019 19:16 6,7 C 5,6 C 5,0 C 93 % 999,6 hPa 0,0 l/m 0 min 2 min 0 W/m 41,8 km/h (6 Bft) 95,74 %
14.03.2019 19:18 6,6 C 5,6 C 5,0 C 93 % 999,6 hPa 0,2 l/m 0 min 2 min 0 W/m 35,4 km/h (5 Bft) 97,87 %
14.03.2019 19:20 6,6 C 5,6 C 5,0 C 93 % 999,6 hPa 0,0 l/m 0 min 2 min 0 W/m 32,2 km/h (5 Bft) 97,87 %
14.03.2019 19:22 6,6 C 5,6 C 5,0 C 93 % 999,6 hPa 0,0 l/m 0 min 2 min 0 W/m 16,1 km/h (3 Bft) 97,87 %
14.03.2019 19:24 6,6 C 5,6 C 4,4 C 93 % 999,6 hPa 0,0 l/m 0 min 2 min 0 W/m 22,5 km/h (4 Bft) 95,65 %
14.03.2019 19:26 6,6 C 5,6 C 4,4 C 93 % 999,6 hPa 0,0 l/m 0 min 2 min 0 W/m 19,3 km/h (3 Bft) 97,87 %
14.03.2019 19:28 6,5 C 5,6 C 4,4 C 94 % 999,7 hPa 0,0 l/m 0 min 2 min 0 W/m 16,1 km/h (3 Bft) 97,87 %
14.03.2019 19:30 6,5 C 5,6 C 4,4 C 94 % 999,8 hPa 0,0 l/m 0 min 2 min 0 W/m 12,9 km/h (3 Bft) 97,87 %
14.03.2019 19:32 6,4 C 5,6 C 4,4 C 94 % 999,8 hPa 0,0 l/m 0 min 2 min 0 W/m 16,1 km/h (3 Bft) 97,87 %
14.03.2019 19:34 6,4 C 5,6 C 4,4 C 93 % 999,9 hPa 0,0 l/m 0 min 2 min 0 W/m 9,7 km/h (2 Bft) 95,74 %
14.03.2019 19:36 6,4 C 5,0 C 4,4 C 93 % 999,9 hPa 0,0 l/m 0 min 2 min 0 W/m 12,9 km/h (3 Bft) 97,83 %
14.03.2019 19:38 6,4 C 5,0 C 4,4 C 93 % 999,9 hPa 0,0 l/m 0 min 2 min 0 W/m 16,1 km/h (3 Bft) 95,74 %
14.03.2019 19:40 6,4 C 5,0 C 4,4 C 94 % 999,9 hPa 0,0 l/m 0 min 2 min 0 W/m 12,9 km/h (3 Bft) 97,87 %
14.03.2019 19:42 6,4 C 5,0 C 4,4 C 94 % 1000,0 hPa 0,0 l/m 0 min 2 min 0 W/m 6,4 km/h (2 Bft) 95,74 %
14.03.2019 19:44 6,3 C 5,0 C 4,4 C 94 % 1000,2 hPa 0,0 l/m 0 min 2 min 0 W/m 29,0 km/h (5 Bft) 97,87 %
14.03.2019 19:46 6,3 C 5,0 C 4,4 C 94 % 1000,2 hPa 0,0 l/m 0 min 2 min 0 W/m 6,4 km/h (2 Bft) 93,62 %
14.03.2019 19:48 6,3 C 5,0 C 4,4 C 94 % 1000,1 hPa 0,0 l/m 0 min 2 min 0 W/m 6,4 km/h (2 Bft) 95,65 %
14.03.2019 19:50 6,2 C 5,0 C 4,4 C 94 % 1000,2 hPa 0,0 l/m 0 min 2 min 0 W/m 9,7 km/h (2 Bft) 95,74 %
14.03.2019 19:52 6,2 C 5,0 C 4,4 C 94 % 1000,2 hPa 0,0 l/m 0 min 2 min 0 W/m 6,4 km/h (2 Bft) 97,87 %
14.03.2019 19:54 6,2 C 5,0 C 4,4 C 94 % 1000,2 hPa 0,0 l/m 0 min 2 min 0 W/m 9,7 km/h (2 Bft) 97,87 %
14.03.2019 19:56 6,2 C 5,0 C 4,4 C 94 % 1000,2 hPa 0,0 l/m 0 min 2 min 0 W/m 16,1 km/h (3 Bft) 97,87 %
14.03.2019 19:58 6,2 C 5,0 C 4,4 C 94 % 1000,3 hPa 0,0 l/m 0 min 0 min 0 W/m 12,9 km/h (3 Bft) 97,87 %
14.03.2019 20:00 6,2 C 5,0 C 4,4 C 94 % 1000,3 hPa 0,0 l/m 0 min 0 min 0 W/m 16,1 km/h (3 Bft) 97,83 %
14.03.2019 20:02 6,1 C 5,0 C 4,4 C 94 % 1000,3 hPa 0,0 l/m 0 min 2 min 0 W/m 19,3 km/h (3 Bft) 93,62 %
14.03.2019 20:04 6,1 C 5,6 C 4,4 C 94 % 1000,4 hPa 0,0 l/m 0 min 0 min 0 W/m 16,1 km/h (3 Bft) 95,74 %
14.03.2019 20:06 6,1 C 5,6 C 4,4 C 94 % 1000,6 hPa 0,0 l/m 0 min 0 min 0 W/m 9,7 km/h (2 Bft) 95,74 %
14.03.2019 20:08 6,1 C 5,6 C 4,4 C 94 % 1000,6 hPa 0,0 l/m 0 min 0 min 0 W/m 22,5 km/h (4 Bft) 95,74 %
14.03.2019 20:10 6,1 C 5,6 C 4,4 C 94 % 1000,6 hPa 0,0 l/m 0 min 0 min 0 W/m 25,7 km/h (4 Bft) 95,65 %
14.03.2019 20:12 6,1 C 5,6 C 4,4 C 94 % 1000,6 hPa 0,0 l/m 0 min 0 min 0 W/m 9,7 km/h (2 Bft) 93,62 %
14.03.2019 20:14 6,1 C 5,6 C 4,4 C 94 % 1000,8 hPa 0,0 l/m 0 min 0 min 0 W/m 12,9 km/h (3 Bft) 97,87 %
14.03.2019 20:16 6,1 C 5,6 C 4,4 C 94 % 1000,8 hPa 0,0 l/m 0 min 0 min 0 W/m 6,4 km/h (2 Bft) 95,74 %
14.03.2019 20:18 6,1 C 5,6 C 4,4 C 94 % 1000,8 hPa 0,0 l/m 0 min 0 min 0 W/m 12,9 km/h (3 Bft) 93,62 %
14.03.2019 20:20 6,2 C 5,6 C 4,4 C 94 % 1000,8 hPa 0,0 l/m 0 min 0 min 0 W/m 12,9 km/h (3 Bft) 93,62 %
14.03.2019 20:22 6,2 C 5,6 C 4,4 C 94 % 1000,9 hPa 0,0 l/m 0 min 0 min 0 W/m 9,7 km/h (2 Bft) 95,74 %
14.03.2019 20:24 6,2 C 5,6 C 4,4 C 94 % 1001,0 hPa 0,0 l/m 0 min 0 min 0 W/m 6,4 km/h (2 Bft) 95,65 %
14.03.2019 20:26 6,2 C 5,6 C 4,4 C 94 % 1001,0 hPa 0,0 l/m 0 min 0 min 0 W/m 9,7 km/h (2 Bft) 95,74 %
14.03.2019 20:28 6,2 C 5,6 C 4,4 C 94 % 1001,0 hPa 0,0 l/m 0 min 0 min 0 W/m 12,9 km/h (3 Bft) 95,74 %
14.03.2019 20:30 6,2 C 5,6 C 4,4 C 94 % 1001,0 hPa 0,0 l/m 0 min 0 min 0 W/m 12,9 km/h (3 Bft) 93,62 %
14.03.2019 20:32 6,2 C 5,6 C 4,4 C 94 % 1001,1 hPa 0,0 l/m 0 min 0 min 0 W/m 12,9 km/h (3 Bft) 95,74 %
14.03.2019 20:34 6,2 C 6,1 C 4,4 C 94 % 1001,1 hPa 0,0 l/m 0 min 0 min 0 W/m 3,2 km/h (1 Bft) 95,65 %
14.03.2019 20:36 6,2 C 6,1 C 5,0 C 94 % 1001,1 hPa 0,0 l/m 0 min 0 min 0 W/m 16,1 km/h (3 Bft) 95,74 %
14.03.2019 20:38 6,3 C 6,1 C 5,0 C 94 % 1001,1 hPa 0,0 l/m 0 min 0 min 0 W/m 9,7 km/h (2 Bft) 97,87 %
14.03.2019 20:40 6,3 C 6,1 C 5,0 C 94 % 1001,2 hPa 0,0 l/m 0 min 0 min 0 W/m 12,9 km/h (3 Bft) 97,87 %
14.03.2019 20:42 6,3 C 6,1 C 5,0 C 94 % 1001,2 hPa 0,0 l/m 0 min 0 min 0 W/m 3,2 km/h (1 Bft) 95,74 %
14.03.2019 20:44 6,4 C 6,1 C 5,0 C 94 % 1001,2 hPa 0,0 l/m 0 min 0 min 0 W/m 19,3 km/h (3 Bft) 95,74 %
14.03.2019 20:46 6,4 C 6,1 C 5,0 C 94 % 1001,3 hPa 0,0 l/m 0 min 0 min 0 W/m 25,7 km/h (4 Bft) 95,65 %
14.03.2019 20:48 6,4 C 6,1 C 5,0 C 94 % 1001,3 hPa 0,0 l/m 0 min 0 min 0 W/m 19,3 km/h (3 Bft) 97,87 %
14.03.2019 20:50 6,4 C 6,1 C 5,0 C 94 % 1001,4 hPa 0,0 l/m 0 min 0 min 0 W/m 12,9 km/h (3 Bft) 97,87 %
14.03.2019 20:52 6,4 C 6,1 C 5,0 C 94 % 1001,5 hPa 0,0 l/m 0 min 0 min 0 W/m 9,7 km/h (2 Bft) 97,87 %
14.03.2019 20:54 6,5 C 6,1 C 5,0 C 94 % 1001,6 hPa 0,0 l/m 0 min 0 min 0 W/m 9,7 km/h (2 Bft) 95,74 %
14.03.2019 20:56 6,5 C 6,1 C 5,0 C 94 % 1001,7 hPa 0,0 l/m 0 min 0 min 0 W/m 9,7 km/h (2 Bft) 97,87 %
14.03.2019 20:58 6,6 C 6,1 C 5,0 C 94 % 1001,7 hPa 0,0 l/m 0 min 0 min 0 W/m 12,9 km/h (3 Bft) 97,83 %
14.03.2019 21:00 6,6 C 6,1 C 5,0 C 94 % 1001,7 hPa 0,0 l/m 0 min 0 min 0 W/m 12,9 km/h (3 Bft) 97,87 %
14.03.2019 21:02 6,6 C 6,1 C 5,0 C 94 % 1001,7 hPa 0,0 l/m 0 min 0 min 0 W/m 16,1 km/h (3 Bft) 97,87 %
14.03.2019 21:04 6,6 C 6,1 C 5,0 C 94 % 1001,8 hPa 0,0 l/m 0 min 0 min 0 W/m 12,9 km/h (3 Bft) 100,00 %
14.03.2019 21:06 6,7 C 6,7 C 5,0 C 94 % 1002,0 hPa 0,0 l/m 0 min 0 min 0 W/m 16,1 km/h (3 Bft) 100,00 %
14.03.2019 21:08 6,7 C 6,1 C 5,0 C 93 % 1002,0 hPa 0,0 l/m 0 min 0 min 0 W/m 16,1 km/h (3 Bft) 100,00 %
14.03.2019 21:10 6,7 C 6,1 C 5,0 C 93 % 1002,0 hPa 0,0 l/m 0 min 0 min 0 W/m 16,1 km/h (3 Bft) 97,83 %
14.03.2019 21:12 6,7 C 6,7 C 5,0 C 93 % 1002,0 hPa 0,0 l/m 0 min 0 min 0 W/m 6,4 km/h (2 Bft) 100,00 %
14.03.2019 21:14 6,7 C 6,7 C 5,0 C 93 % 1002,0 hPa 0,0 l/m 0 min 0 min 0 W/m 9,7 km/h (2 Bft) 100,00 %
14.03.2019 21:16 6,7 C 6,7 C 5,0 C 93 % 1002,1 hPa 0,0 l/m 0 min 0 min 0 W/m 6,4 km/h (2 Bft) 100,00 %
14.03.2019 21:18 6,7 C 6,7 C 5,0 C 93 % 1002,1 hPa 0,0 l/m 0 min 0 min 0 W/m 6,4 km/h (2 Bft) 95,74 %
14.03.2019 21:20 6,7 C 6,1 C 5,0 C 93 % 1002,2 hPa 0,0 l/m 0 min 0 min 0 W/m 9,7 km/h (2 Bft) 100,00 %
14.03.2019 21:22 6,7 C 6,1 C 5,0 C 93 % 1002,3 hPa 0,0 l/m 0 min 0 min 0 W/m 6,4 km/h (2 Bft) 97,87 %
14.03.2019 21:24 6,7 C 6,1 C 5,0 C 93 % 1002,3 hPa 0,0 l/m 0 min 0 min 0 W/m 9,7 km/h (2 Bft) 97,87 %
14.03.2019 21:26 6,7 C 6,7 C 5,0 C 93 % 1002,3 hPa 0,0 l/m 0 min 0 min 0 W/m 9,7 km/h (2 Bft) 100,00 %
14.03.2019 21:28 6,7 C 6,7 C 5,0 C 93 % 1002,3 hPa 0,0 l/m 0 min 0 min 0 W/m 9,7 km/h (2 Bft) 100,00 %
14.03.2019 21:30 6,7 C 6,1 C 5,0 C 93 % 1002,4 hPa 0,0 l/m 0 min 0 min 0 W/m 16,1 km/h (3 Bft) 93,62 %
14.03.2019 21:32 6,7 C 6,1 C 5,0 C 92 % 1002,3 hPa 0,0 l/m 0 min 0 min 0 W/m 9,7 km/h (2 Bft) 100,00 %
14.03.2019 21:34 6,7 C 6,1 C 5,0 C 92 % 1002,3 hPa 0,0 l/m 0 min 0 min 0 W/m 16,1 km/h (3 Bft) 100,00 %
14.03.2019 21:36 6,7 C 6,1 C 5,0 C 92 % 1002,4 hPa 0,0 l/m 0 min 0 min 0 W/m 6,4 km/h (2 Bft) 100,00 %
14.03.2019 21:38 6,7 C 6,1 C 4,4 C 92 % 1002,4 hPa 0,0 l/m 0 min 0 min 0 W/m 9,7 km/h (2 Bft) 97,87 %
14.03.2019 21:40 6,7 C 6,1 C 4,4 C 92 % 1002,4 hPa 0,0 l/m 0 min 0 min 0 W/m 9,7 km/h (2 Bft) 97,87 %
14.03.2019 21:42 6,7 C 6,1 C 4,4 C 92 % 1002,4 hPa 0,0 l/m 0 min 0 min 0 W/m 9,7 km/h (2 Bft) 97,87 %
14.03.2019 21:44 6,7 C 6,1 C 4,4 C 92 % 1002,5 hPa 0,0 l/m 0 min 0 min 0 W/m 9,7 km/h (2 Bft) 93,48 %
14.03.2019 21:46 6,7 C 6,1 C 5,0 C 92 % 1002,6 hPa 0,0 l/m 0 min 0 min 0 W/m 9,7 km/h (2 Bft) 97,87 %
14.03.2019 21:48 6,7 C 6,1 C 5,0 C 92 % 1002,6 hPa 0,0 l/m 0 min 0 min 0 W/m 12,9 km/h (3 Bft) 97,87 %
14.03.2019 21:50 6,7 C 6,1 C 5,0 C 91 % 1002,6 hPa 0,0 l/m 0 min 0 min 0 W/m 16,1 km/h (3 Bft) 97,87 %
14.03.2019 21:52 6,7 C 6,1 C 5,0 C 91 % 1002,5 hPa 0,0 l/m 0 min 0 min 0 W/m 19,3 km/h (3 Bft) 93,62 %
14.03.2019 21:54 6,7 C 6,1 C 5,0 C 91 % 1002,6 hPa 0,0 l/m 0 min 0 min 0 W/m 25,7 km/h (4 Bft) 97,87 %
14.03.2019 21:56 6,7 C 6,1 C 5,0 C 91 % 1002,7 hPa 0,0 l/m 0 min 0 min 0 W/m 19,3 km/h (3 Bft) 97,83 %
14.03.2019 21:58 6,7 C 6,1 C 5,0 C 91 % 1002,7 hPa 0,0 l/m 0 min 0 min 0 W/m 12,9 km/h (3 Bft) 95,74 %
14.03.2019 22:00 6,7 C 6,1 C 5,0 C 91 % 1002,8 hPa 0,0 l/m 0 min 0 min 0 W/m 12,9 km/h (3 Bft) 95,74 %
14.03.2019 22:02 6,7 C 6,1 C 5,0 C 91 % 1002,8 hPa 0,0 l/m 0 min 0 min 0 W/m 16,1 km/h (3 Bft) 95,74 %
14.03.2019 22:04 6,7 C 6,1 C 5,0 C 91 % 1002,8 hPa 0,0 l/m 0 min 0 min 0 W/m 9,7 km/h (2 Bft) 97,87 %
14.03.2019 22:06 6,7 C 6,7 C 5,0 C 91 % 1002,7 hPa 0,0 l/m 0 min 0 min 0 W/m 9,7 km/h (2 Bft) 97,83 %
14.03.2019 22:08 6,7 C 6,7 C 5,0 C 91 % 1002,8 hPa 0,0 l/m 0 min 0 min 0 W/m 9,7 km/h (2 Bft) 97,87 %
14.03.2019 22:10 6,8 C 6,7 C 5,0 C 90 % 1002,9 hPa 0,0 l/m 0 min 0 min 0 W/m 12,9 km/h (3 Bft) 97,87 %
14.03.2019 22:12 6,8 C 6,7 C 5,0 C 90 % 1002,9 hPa 0,0 l/m 0 min 0 min 0 W/m 16,1 km/h (3 Bft) 97,87 %
14.03.2019 22:14 6,8 C 6,7 C 5,6 C 90 % 1002,8 hPa 0,0 l/m 0 min 0 min 0 W/m 6,4 km/h (2 Bft) 97,87 %
14.03.2019 22:16 6,8 C 6,7 C 5,6 C 91 % 1002,9 hPa 0,0 l/m 0 min 0 min 0 W/m 6,4 km/h (2 Bft) 97,87 %
14.03.2019 22:18 6,8 C 6,7 C 5,6 C 90 % 1002,9 hPa 0,0 l/m 0 min 0 min 0 W/m 9,7 km/h (2 Bft) 100,00 %
14.03.2019 22:20 6,8 C 6,7 C 5,6 C 90 % 1002,9 hPa 0,0 l/m 0 min 0 min 0 W/m 9,7 km/h (2 Bft) 97,87 %
14.03.2019 22:22 6,9 C 6,7 C 5,6 C 90 % 1002,9 hPa 0,0 l/m 0 min 0 min 0 W/m 6,4 km/h (2 Bft) 100,00 %
14.03.2019 22:24 6,9 C 6,7 C 5,6 C 90 % 1003,0 hPa 0,0 l/m 0 min 0 min 0 W/m 6,4 km/h (2 Bft) 100,00 %
14.03.2019 22:26 6,9 C 6,7 C 5,6 C 90 % 1003,0 hPa 0,0 l/m 0 min 0 min 0 W/m 6,4 km/h (2 Bft) 100,00 %
14.03.2019 22:28 6,9 C 6,7 C 5,6 C 90 % 1003,0 hPa 0,0 l/m 0 min 0 min 0 W/m 0,0 km/h (0 Bft) 97,87 %
14.03.2019 22:30 6,9 C 6,7 C 5,6 C 90 % 1003,1 hPa 0,0 l/m 0 min 0 min 0 W/m 0,0 km/h (0 Bft) 97,83 %
14.03.2019 22:32 7,0 C 6,7 C 5,6 C 90 % 1003,1 hPa 0,0 l/m 0 min 0 min 0 W/m 0,0 km/h (0 Bft) 97,87 %
14.03.2019 22:34 7,0 C 6,7 C 5,6 C 89 % 1003,2 hPa 0,0 l/m 0 min 0 min 0 W/m 3,2 km/h (1 Bft) 97,87 %
14.03.2019 22:36 7,0 C 6,7 C 5,6 C 89 % 1003,3 hPa 0,0 l/m 0 min 0 min 0 W/m 0,0 km/h (0 Bft) 93,62 %
14.03.2019 22:38 7,1 C 6,7 C 5,6 C 89 % 1003,3 hPa 0,0 l/m 0 min 0 min 0 W/m 3,2 km/h (1 Bft) 97,87 %
14.03.2019 22:40 7,1 C 6,7 C 5,6 C 89 % 1003,3 hPa 0,0 l/m 0 min 0 min 0 W/m 0,0 km/h (0 Bft) 97,87 %
14.03.2019 22:42 7,1 C 6,7 C 5,6 C 89 % 1003,4 hPa 0,0 l/m 0 min 0 min 0 W/m 0,0 km/h (0 Bft) 97,83 %
14.03.2019 22:44 7,1 C 6,7 C 5,6 C 89 % 1003,4 hPa 0,0 l/m 0 min 0 min 0 W/m 0,0 km/h (0 Bft) 97,87 %
14.03.2019 22:46 7,1 C 6,7 C 5,6 C 89 % 1003,5 hPa 0,0 l/m 0 min 0 min 0 W/m 0,0 km/h (0 Bft) 97,87 %
14.03.2019 22:48 7,1 C 6,7 C 5,6 C 89 % 1003,5 hPa 0,0 l/m 0 min 0 min 0 W/m 0,0 km/h (0 Bft) 97,87 %
14.03.2019 22:50 7,1 C 6,7 C 5,6 C 89 % 1003,5 hPa 0,0 l/m 0 min 0 min 0 W/m 0,0 km/h (0 Bft) 97,87 %
14.03.2019 22:52 7,1 C 6,7 C 5,6 C 89 % 1003,5 hPa 0,0 l/m 0 min 0 min 0 W/m 0,0 km/h (0 Bft) 97,87 %
14.03.2019 22:54 7,1 C 6,7 C 5,6 C 89 % 1003,6 hPa 0,0 l/m 0 min 0 min 0 W/m 0,0 km/h (0 Bft) 95,65 %
14.03.2019 22:56 7,1 C 6,7 C 5,6 C 89 % 1003,7 hPa 0,0 l/m 0 min 0 min 0 W/m 0,0 km/h (0 Bft) 95,74 %
14.03.2019 22:58 7,1 C 6,7 C 5,6 C 89 % 1003,7 hPa 0,0 l/m 0 min 0 min 0 W/m 0,0 km/h (0 Bft) 97,87 %
14.03.2019 23:00 7,1 C 6,7 C 5,6 C 89 % 1003,7 hPa 0,0 l/m 0 min 0 min 0 W/m 0,0 km/h (0 Bft) 97,87 %
14.03.2019 23:02 7,1 C 6,7 C 5,6 C 88 % 1003,6 hPa 0,0 l/m 0 min 0 min 0 W/m 3,2 km/h (1 Bft) 97,87 %
14.03.2019 23:04 7,1 C 6,7 C 5,6 C 88 % 1003,6 hPa 0,0 l/m 0 min 0 min 0 W/m 0,0 km/h (0 Bft) 97,87 %
14.03.2019 23:06 7,2 C 6,7 C 5,6 C 88 % 1003,8 hPa 0,0 l/m 0 min 0 min 0 W/m 0,0 km/h (0 Bft) 97,87 %
14.03.2019 23:08 7,1 C 6,7 C 5,6 C 88 % 1003,8 hPa 0,0 l/m 0 min 0 min 0 W/m 0,0 km/h (0 Bft) 97,87 %
14.03.2019 23:10 7,2 C 6,7 C 5,6 C 88 % 1003,7 hPa 0,0 l/m 0 min 0 min 0 W/m 0,0 km/h (0 Bft) 100,00 %
14.03.2019 23:12 7,1 C 6,7 C 5,6 C 88 % 1003,7 hPa 0,0 l/m 0 min 0 min 0 W/m 0,0 km/h (0 Bft) 97,87 %
14.03.2019 23:14 7,2 C 6,7 C 5,6 C 88 % 1003,8 hPa 0,0 l/m 0 min 0 min 0 W/m 0,0 km/h (0 Bft) 100,00 %
14.03.2019 23:16 7,2 C 6,7 C 5,6 C 88 % 1003,7 hPa 0,0 l/m 0 min 0 min 0 W/m 0,0 km/h (0 Bft) 97,87 %
14.03.2019 23:18 7,2 C 6,7 C 5,6 C 88 % 1003,8 hPa 0,0 l/m 0 min 0 min 0 W/m 0,0 km/h (0 Bft) 100,00 %
14.03.2019 23:20 7,1 C 6,7 C 5,6 C 88 % 1003,7 hPa 0,0 l/m 0 min 0 min 0 W/m 0,0 km/h (0 Bft) 97,87 %
14.03.2019 23:22 7,1 C 6,7 C 5,6 C 88 % 1003,7 hPa 0,0 l/m 0 min 0 min 0 W/m 0,0 km/h (0 Bft) 97,87 %
14.03.2019 23:24 7,1 C 6,7 C 5,6 C 88 % 1003,8 hPa 0,0 l/m 0 min 0 min 0 W/m 0,0 km/h (0 Bft) 97,87 %
14.03.2019 23:26 7,1 C 6,7 C 5,6 C 88 % 1003,8 hPa 0,0 l/m 0 min 0 min 0 W/m 0,0 km/h (0 Bft) 97,83 %
14.03.2019 23:28 7,1 C 6,7 C 5,6 C 88 % 1003,9 hPa 0,0 l/m 0 min 0 min 0 W/m 0,0 km/h (0 Bft) 97,87 %
14.03.2019 23:30 7,1 C 6,7 C 5,6 C 88 % 1004,0 hPa 0,0 l/m 0 min 0 min 0 W/m 0,0 km/h (0 Bft) 97,87 %
14.03.2019 23:32 7,1 C 6,1 C 5,6 C 88 % 1004,0 hPa 0,0 l/m 0 min 0 min 0 W/m 0,0 km/h (0 Bft) 97,87 %
14.03.2019 23:34 7,1 C 6,1 C 5,6 C 88 % 1003,9 hPa 0,0 l/m 0 min 0 min 0 W/m 0,0 km/h (0 Bft) 97,87 %
14.03.2019 23:36 7,1 C 6,7 C 5,6 C 88 % 1004,0 hPa 0,0 l/m 0 min 0 min 0 W/m 0,0 km/h (0 Bft) 97,83 %
14.03.2019 23:38 7,1 C 6,7 C 5,6 C 88 % 1004,0 hPa 0,0 l/m 0 min 0 min 0 W/m 0,0 km/h (0 Bft) 97,92 %
14.03.2019 23:40 7,1 C 6,7 C 5,6 C 88 % 1004,0 hPa 0,0 l/m 0 min 0 min 0 W/m 0,0 km/h (0 Bft) 97,14 %
14.03.2019 23:42 7,0 C 6,7 C 5,6 C 88 % 1004,0 hPa 0,0 l/m 0 min 0 min 0 W/m 0,0 km/h (0 Bft) 97,87 %
14.03.2019 23:44 7,0 C 6,7 C 5,6 C 88 % 1003,9 hPa 0,0 l/m 0 min 0 min 0 W/m 0,0 km/h (0 Bft) 95,74 %
14.03.2019 23:46 7,0 C 6,7 C 5,6 C 88 % 1003,9 hPa 0,0 l/m 0 min 0 min 0 W/m 0,0 km/h (0 Bft) 97,87 %
14.03.2019 23:48 7,0 C 6,7 C 5,6 C 88 % 1003,9 hPa 0,0 l/m 0 min 0 min 0 W/m 0,0 km/h (0 Bft) 97,87 %
14.03.2019 23:50 7,0 C 6,7 C 5,6 C 88 % 1003,9 hPa 0,0 l/m 0 min 0 min 0 W/m 3,2 km/h (1 Bft) 97,87 %
14.03.2019 23:52 7,0 C 6,7 C 5,6 C 88 % 1003,8 hPa 0,0 l/m 0 min 0 min 0 W/m 0,0 km/h (0 Bft) 97,83 %
14.03.2019 23:54 7,0 C 6,7 C 5,6 C 88 % 1003,9 hPa 0,0 l/m 0 min 0 min 0 W/m 0,0 km/h (0 Bft) 95,74 %
14.03.2019 23:56 7,0 C 6,7 C 5,6 C 88 % 1003,9 hPa 0,0 l/m 0 min 0 min 0 W/m 3,2 km/h (1 Bft) 95,74 %
14.03.2019 23:58 7,0 C 6,7 C 5,6 C 88 % 1003,7 hPa 0,0 l/m 0 min 0 min 0 W/m 3,2 km/h (1 Bft) 97,87 %
_ Min-Zeit 00:00 00:04 00:04 05:22 14:30 - - - - 00:44 07:58
Minimum _ 5,4 C 3,9 C 3,3 C 86 % 993,2 hPa - - - - 0,0 km/h (0 Bft) 86,96 %
_ Max-Zeit 15:32 15:28 15:24 14:06 00:30 16:30 15:16 00:07 15:26 12:00 00:14
Maximum _ 10,4 C 13,3 C 9,4 C 97 % 1008,0 hPa 0,4 l/m 2 min 3 min 606 W/m 67,6 km/h
O-SO (8 Bft)
100,00 %
Durchschnitt _ 6,7 C 5,9 C 5,2 C 92 % 1001,1 hPa #11,6 l/m #18 min. #13:00 h 76 W/m 20,6 km/h (4 Bft) 97,45 %
© 2019 W. Hausmann